DW4078 Weather Reports


Display with metric or nautical units.
time (UTC)temp
F
wind
direction
speed
MPH
gust
MPH
rain 1hr
in
rain 24hr
in
rain mn
in
humidity
%
barometer
mb
20260902013602 77 0 0.0 0.0 0.00 0.00 0.00 81 1016.6
20260902013503 77 0 0.0 0.0 0.00 0.00 0.00 81 1016.4
20260902013402 77 0 0.0 0.0 0.00 0.00 0.00 81 1016.4
20260902013303 77 0 0.0 0.0 0.00 0.00 0.00 81 1016.5
20260902013223 77 0 0.0 0.0 0.00 0.00 0.00 81 1016.2
20260902013103 78 0 0.0 0.0 0.00 0.00 0.00 81 1016.4
20260902013004 78 0 0.0 0.0 0.00 0.00 0.00 80 1016.3
20260902012902 78 0 0.0 0.0 0.00 0.00 0.00 80 1016.3
20260902012824 78 0 0.0 0.0 0.00 0.00 0.00 80 1016.2
20260902012703 78 0 0.0 0.0 0.00 0.00 0.00 79 1016.3
20260902012604 78 0 0.0 0.0 0.00 0.00 0.00 78 1016.3
20260902012503 78 0 0.0 0.0 0.00 0.00 0.00 78 1016.2
20260902012402 79 145 0.0 1.0 0.00 0.00 0.00 78 1016.2
20260902012308 79 140 0.0 1.0 0.00 0.00 0.00 78 1016.5
20260902012203 79 140 0.0 1.0 0.00 0.00 0.00 77 1016.2
20260902012103 79 139 0.0 1.0 0.00 0.00 0.00 77 1016.4
20260902012003 79 141 0.0 1.0 0.00 0.00 0.00 77 1016.1
20260902011902 79 142 0.0 1.0 0.00 0.00 0.00 76 1016.4
20260902011823 79 142 0.0 1.0 0.00 0.00 0.00 76 1016.3
20260902011702 79 142 0.0 1.0 0.00 0.00 0.00 76 1016.1
20260902011603 80 142 0.0 1.0 0.00 0.00 0.00 76 1016.3
20260902011502 80 142 0.0 1.0 0.00 0.00 0.00 75 1016.2
20260902011423 80 142 0.0 1.0 0.00 0.00 0.00 75 1016.3
20260902011303 80 141 0.0 1.0 0.00 0.00 0.00 75 1016.0
20260902011202 80 143 0.0 1.0 0.00 0.00 0.00 75 1016.0
20260902011102 80 143 0.0 1.0 0.00 0.00 0.00 75 1016.3
20260902011003 80 139 0.0 1.0 0.00 0.00 0.00 75 1016.3
20260902010904 80 157 0.0 2.0 0.00 0.00 0.00 75 1016.2
20260902010803 80 149 0.0 2.0 0.00 0.00 0.00 75 1016.1
20260902010723 80 174 0.0 4.0 0.00 0.00 0.00 75 1016.1
20260902010602 80 181 0.0 4.0 0.00 0.00 0.00 75 1016.2
20260902010503 80 181 0.0 4.0 0.00 0.00 0.00 74 1016.0
20260902010403 80 181 0.0 4.0 0.00 0.00 0.00 74 1016.0
20260902010323 80 181 0.0 4.0 0.00 0.00 0.00 74 1016.0
20260902010202 80 176 0.0 4.0 0.00 0.00 0.00 74 1016.2
20260902010002 80 171 0.0 4.0 0.00 0.00 0.00 74 1016.1
20260902005902 80 168 0.0 4.0 0.00 0.00 0.00 74 1016.1
20260902005824 80 173 0.0 4.0 0.00 0.00 0.00 74 1016.1
20260902005703 80 132 0.0 2.0 0.00 0.00 0.00 75 1016.2
20260902005602 80 139 0.0 2.0 0.00 0.00 0.00 75 1016.1
20260902005503 80 139 0.0 2.0 0.00 0.00 0.00 74 1016.1
20260902005402 80 149 1.0 3.0 0.00 0.00 0.00 74 1016.3
20260902005306 81 149 1.0 3.0 0.00 0.00 0.00 74 1016.1
20260902005203 81 150 1.0 3.0 0.00 0.00 0.00 74 1016.0
20260902005124 81 152 0.0 3.0 0.00 0.00 0.00 74 1016.0
20260902005002 81 152 0.0 3.0 0.00 0.00 0.00 74 1016.2
20260902004903 81 153 0.0 3.0 0.00 0.00 0.00 74 1016.2
20260902004825 81 151 1.0 3.0 0.00 0.00 0.00 74 1016.0
20260902004702 81 168 1.0 3.0 0.00 0.00 0.00 73 1016.1
20260902004603 81 173 1.0 3.0 0.00 0.00 0.00 73 1016.2
20260902004502 81 186 1.0 3.0 0.00 0.00 0.00 73 1015.9
20260902004403 81 169 1.0 3.0 0.00 0.00 0.00 73 1015.9
20260902004302 81 154 1.0 3.0 0.00 0.00 0.00 73 1016.0
20260902004203 81 161 1.0 6.0 0.00 0.00 0.00 73 1015.9
20260902004102 81 178 1.0 6.0 0.00 0.00 0.00 73 1016.0
20260902004025 81 190 1.0 6.0 0.00 0.00 0.00 73 1016.1
20260902003904 81 188 2.0 6.0 0.00 0.00 0.00 73 1016.0
20260902003803 81 183 2.0 6.0 0.00 0.00 0.00 73 1016.0
20260902003702 81 177 2.0 6.0 0.00 0.00 0.00 73 1015.9
20260902003603 81 175 2.0 6.0 0.00 0.00 0.00 73 1015.9
20260902003504 81 171 1.0 6.0 0.00 0.00 0.00 73 1016.0
20260902003404 82 170 1.0 6.0 0.00 0.00 0.00 73 1016.0
20260902003302 82 177 1.0 6.0 0.00 0.00 0.00 73 1015.9
20260902003203 82 174 1.0 4.0 0.00 0.00 0.00 72 1016.0
20260902003102 82 177 1.0 4.0 0.00 0.00 0.00 72 1015.7
20260902003003 82 186 1.0 3.0 0.00 0.00 0.00 72 1015.6
20260902002902 82 181 1.0 3.0 0.00 0.00 0.00 72 1015.7
20260902002804 82 186 1.0 4.0 0.00 0.00 0.00 72 1015.7
20260902002703 82 193 1.0 4.0 0.00 0.00 0.00 72 1015.7
20260902002603 82 192 1.0 4.0 0.00 0.00 0.00 72 1015.5
20260902002503 82 183 1.0 4.0 0.00 0.00 0.00 72 1015.6
20260902002424 82 184 1.0 4.0 0.00 0.00 0.00 72 1015.7
20260902002306 82 182 1.0 4.0 0.00 0.00 0.00 72 1015.6
20260902002202 82 187 1.0 4.0 0.00 0.00 0.00 72 1015.6
20260902002103 82 170 1.0 4.0 0.00 0.00 0.00 72 1015.5
20260902002002 82 163 1.0 4.0 0.00 0.00 0.00 72 1015.5
20260902001924 82 163 1.0 4.0 0.00 0.00 0.00 72 1015.7
20260902001803 82 160 1.0 4.0 0.00 0.00 0.00 71 1015.3
20260902001702 82 162 1.0 4.0 0.00 0.00 0.00 72 1015.5
20260902001602 82 160 1.0 4.0 0.00 0.00 0.00 71 1015.4
20260902001502 82 161 1.0 6.0 0.00 0.00 0.00 72 1015.4
20260902001402 82 163 1.0 6.0 0.00 0.00 0.00 71 1015.5
20260902001323 82 167 1.0 6.0 0.00 0.00 0.00 71 1015.4
20260902001202 82 168 1.0 6.0 0.00 0.00 0.00 72 1015.4
20260902001124 82 166 1.0 6.0 0.00 0.00 0.00 71 1015.5
20260902001002 82 168 1.0 7.0 0.00 0.00 0.00 72 1015.4
20260902000923 82 175 2.0 7.0 0.00 0.00 0.00 71 1015.5
20260902000802 82 184 2.0 9.0 0.00 0.00 0.00 71 1015.6
20260902000702 82 180 2.0 9.0 0.00 0.00 0.00 71 1015.9
20260902000602 82 177 2.0 9.0 0.00 0.00 0.00 71 1015.6
20260902000504 82 183 2.0 9.0 0.00 0.00 0.00 71 1015.5
20260902000404 83 180 2.0 9.0 0.00 0.00 0.00 71 1016.0
20260902000323 83 170 2.0 9.0 0.00 0.00 0.00 71 1015.6
20260902000204 83 171 2.0 9.0 0.00 0.00 0.00 71 1015.9
20260902000103 83 174 2.0 9.0 0.00 0.00 0.00 70 1015.6
20260902000002 83 177 2.0 9.0 0.00 0.00 0.00 70 1015.9
20260901235903 83 183 2.0 7.0 0.00 0.00 0.00 71 1015.7
20260901235803 83 199 2.0 7.0 0.00 0.00 0.00 71 1015.9
20260901235702 83 210 2.0 7.0 0.00 0.00 0.00 71 1015.9
20260901235603 83 212 2.0 7.0 0.00 0.00 0.00 71 1016.1
20260901235502 83 214 2.0 7.0 0.00 0.00 0.00 71 1016.0
20260901235402 83 218 2.0 7.0 0.00 0.00 0.00 71 1016.1
20260901235307 83 219 2.0 7.0 0.00 0.00 0.00 70 1015.9
20260901235202 83 219 2.0 7.0 0.00 0.00 0.00 71 1016.0
20260901235102 83 222 2.0 7.0 0.00 0.00 0.00 70 1016.0
20260901235002 83 216 2.0 7.0 0.00 0.00 0.00 71 1016.0
20260901234904 83 205 2.0 6.0 0.00 0.00 0.00 70 1016.1
20260901234802 83 198 1.0 6.0 0.00 0.00 0.00 71 1016.0
20260901234702 83 198 2.0 6.0 0.00 0.00 0.00 71 1015.7
20260901234623 83 206 2.0 6.0 0.00 0.00 0.00 70 1016.0
20260901234502 83 198 2.0 6.0 0.00 0.00 0.00 71 1016.1
20260901234402 83 189 1.0 6.0 0.00 0.00 0.00 71 1016.2
20260901234304 83 187 2.0 6.0 0.00 0.00 0.00 71 1016.0
20260901234202 83 185 1.0 6.0 0.00 0.00 0.00 71 1015.9
20260901234103 83 181 1.0 6.0 0.00 0.00 0.00 71 1016.1
20260901234002 83 182 1.0 6.0 0.00 0.00 0.00 70 1016.0
20260901233902 83 187 1.0 6.0 0.00 0.00 0.00 70 1016.1
20260901233804 83 182 1.0 6.0 0.00 0.00 0.00 70 1016.0
20260901233724 83 175 1.0 6.0 0.00 0.00 0.00 70 1016.1
20260901233604 83 155 1.0 4.0 0.00 0.00 0.00 70 1016.1
20260901233504 83 159 1.0 4.0 0.00 0.00 0.00 70 1016.1
20260901233403 83 177 1.0 6.0 0.00 0.00 0.00 70 1016.1
20260901233304 83 193 1.0 6.0 0.00 0.00 0.00 70 1015.9
20260901233203 83 219 1.0 6.0 0.00 0.00 0.00 69 1016.1
20260901233104 83 240 2.0 7.0 0.00 0.00 0.00 70 1015.9
20260901233002 83 243 2.0 7.0 0.00 0.00 0.00 70 1016.0
20260901232923 83 237 2.0 7.0 0.00 0.00 0.00 69 1016.3
20260901232803 83 236 2.0 7.0 0.00 0.00 0.00 69 1016.2
20260901232702 84 233 2.0 7.0 0.00 0.00 0.00 69 1016.2
20260901232603 84 234 2.0 7.0 0.00 0.00 0.00 69 1016.2
20260901232503 84 222 2.0 7.0 0.00 0.00 0.00 69 1015.7
20260901232402 84 215 2.0 7.0 0.00 0.00 0.00 69 1016.2
20260901232323 84 213 2.0 7.0 0.00 0.00 0.00 69 1016.2
20260901232202 84 209 2.0 7.0 0.00 0.00 0.00 68 1016.2
20260901232102 84 206 2.0 6.0 0.00 0.00 0.00 68 1016.2
20260901232002 84 207 2.0 6.0 0.00 0.00 0.00 68 1016.3
20260901231902 84 215 2.0 6.0 0.00 0.00 0.00 68 1016.3
20260901231802 84 222 2.0 6.0 0.00 0.00 0.00 68 1016.2
20260901231702 84 228 2.0 6.0 0.00 0.00 0.00 68 1016.5
20260901231603 84 231 2.0 6.0 0.00 0.00 0.00 67 1016.5
20260901231525 84 230 2.0 6.0 0.00 0.00 0.00 67 1016.4
20260901231404 84 227 2.0 6.0 0.00 0.00 0.00 67 1016.2
20260901231303 84 226 2.0 6.0 0.00 0.00 0.00 66 1016.3
20260901231204 84 222 2.0 6.0 0.00 0.00 0.00 66 1016.3
20260901231102 84 199 2.0 6.0 0.00 0.00 0.00 66 1016.4
20260901231024 84 207 2.0 6.0 0.00 0.00 0.00 66 1016.4
20260901230923 84 198 2.0 6.0 0.00 0.00 0.00 66 1016.5
20260901230802 85 200 2.0 7.0 0.00 0.00 0.00 66 1016.5
20260901230703 85 194 2.0 7.0 0.00 0.00 0.00 66 1016.6
20260901230603 85 197 2.0 7.0 0.00 0.00 0.00 65 1016.6
20260901230502 85 202 2.0 7.0 0.00 0.00 0.00 65 1016.5
20260901230402 85 197 2.0 7.0 0.00 0.00 0.00 65 1016.6
20260901230302 85 193 2.0 7.0 0.00 0.00 0.00 65 1016.6
20260901230202 85 196 3.0 7.0 0.00 0.00 0.00 65 1016.4
20260901230002 85 192 2.0 7.0 0.00 0.00 0.00 65 1016.5
20260901225902 85 190 2.0 7.0 0.00 0.00 0.00 65 1016.6
20260901225802 85 169 2.0 6.0 0.00 0.00 0.00 65 1016.7
20260901225725 85 161 2.0 7.0 0.00 0.00 0.00 65 1016.6
20260901225602 85 167 2.0 7.0 0.00 0.00 0.00 65 1016.7
20260901225503 85 175 2.0 7.0 0.00 0.00 0.00 65 1016.7
20260901225402 85 178 2.0 7.0 0.00 0.00 0.00 65 1016.6
20260901225306 85 184 3.0 7.0 0.00 0.00 0.00 65 1016.7
20260901225224 85 184 2.0 7.0 0.00 0.00 0.00 65 1016.6
20260901225104 85 182 3.0 7.0 0.00 0.00 0.00 65 1016.6
20260901225024 85 181 3.0 7.0 0.00 0.00 0.00 66 1016.5
20260901224902 85 188 3.0 7.0 0.00 0.00 0.00 65 1016.4
20260901224804 85 204 3.0 7.0 0.00 0.00 0.00 65 1016.5
20260901224703 85 204 2.0 7.0 0.00 0.00 0.00 65 1016.7
20260901224603 85 217 2.0 6.0 0.00 0.00 0.00 64 1016.6
20260901224503 85 218 3.0 8.0 0.00 0.00 0.00 65 1016.7
20260901224402 85 212 3.0 8.0 0.00 0.00 0.00 65 1016.8
20260901224302 85 222 3.0 8.0 0.00 0.00 0.00 65 1016.7
20260901224223 85 227 3.0 8.0 0.00 0.00 0.00 65 1016.8
20260901224124 85 230 3.0 8.0 0.00 0.00 0.00 65 1016.6
20260901224002 85 232 3.0 9.0 0.00 0.00 0.00 66 1016.6
20260901223902 85 228 3.0 9.0 0.00 0.00 0.00 65 1016.7
20260901223804 85 223 3.0 9.0 0.00 0.00 0.00 65 1016.7
20260901223702 86 224 3.0 9.0 0.00 0.00 0.00 65 1016.7
20260901223602 86 217 3.0 9.0 0.00 0.00 0.00 65 1016.7
20260901223503 86 222 3.0 9.0 0.00 0.00 0.00 64 1016.8
20260901223402 86 228 3.0 9.0 0.00 0.00 0.00 65 1016.7
20260901223302 86 220 3.0 9.0 0.00 0.00 0.00 65 1016.7
20260901223225 86 220 4.0 9.0 0.00 0.00 0.00 65 1016.6
20260901223102 87 214 4.0 9.0 0.00 0.00 0.00 64 1016.8
20260901223006 87 216 3.0 8.0 0.00 0.00 0.00 64 1016.5
20260901222902 87 219 4.0 8.0 0.00 0.00 0.00 64 1016.7
20260901222802 87 222 4.0 8.0 0.00 0.00 0.00 64 1016.5
20260901222702 87 222 4.0 8.0 0.00 0.00 0.00 64 1016.6
20260901222623 87 225 4.0 8.0 0.00 0.00 0.00 63 1016.7
20260901222502 87 215 4.0 8.0 0.00 0.00 0.00 63 1016.6
20260901222402 87 220 4.0 9.0 0.00 0.00 0.00 64 1016.7
20260901222306 87 221 4.0 9.0 0.00 0.00 0.00 63 1016.8
20260901222203 87 219 4.0 11.0 0.00 0.00 0.00 64 1016.7
20260901222123 87 229 4.0 13.0 0.00 0.00 0.00 63 1016.7
20260901222003 87 241 5.0 14.0 0.00 0.00 0.00 63 1016.6
20260901221902 87 244 5.0 14.0 0.00 0.00 0.00 63 1016.6
20260901221803 87 249 5.0 14.0 0.00 0.00 0.00 64 1016.8
20260901221702 87 253 6.0 14.0 0.00 0.00 0.00 64 1016.7
20260901221602 87 256 6.0 14.0 0.00 0.00 0.00 64 1016.5
20260901221504 87 258 6.0 14.0 0.00 0.00 0.00 65 1016.4
20260901221403 87 254 6.0 14.0 0.00 0.00 0.00 64 1016.6
20260901221325 87 260 6.0 14.0 0.00 0.00 0.00 63 1016.6
20260901221204 87 251 5.0 14.0 0.00 0.00 0.00 63 1016.5
20260901221125 87 245 5.0 14.0 0.00 0.00 0.00 64 1016.6
20260901221002 87 236 5.0 13.0 0.00 0.00 0.00 63 1016.3
20260901220902 87 232 4.0 13.0 0.00 0.00 0.00 64 1016.5
20260901220824 87 229 4.0 9.0 0.00 0.00 0.00 64 1016.5
20260901220723 87 223 4.0 9.0 0.00 0.00 0.00 64 1016.5
20260901220604 87 218 4.0 9.0 0.00 0.00 0.00 65 1016.6
20260901220502 87 219 4.0 9.0 0.00 0.00 0.00 65 1016.5
20260901220402 87 225 4.0 9.0 0.00 0.00 0.00 65 1016.6
20260901220302 87 223 4.0 9.0 0.00 0.00 0.00 65 1016.6
20260901220203 87 228 4.0 9.0 0.00 0.00 0.00 65 1016.6
20260901220003 87 230 4.0 9.0 0.00 0.00 0.00 66 1016.6
20260901215902 87 233 4.0 9.0 0.00 0.00 0.00 66 1016.3
20260901215802 87 230 4.0 9.0 0.00 0.00 0.00 65 1016.5
20260901215723 87 224 4.0 9.0 0.00 0.00 0.00 66 1016.5
20260901215623 87 224 4.0 11.0 0.00 0.00 0.00 65 1016.5
20260901215503 87 229 4.0 13.0 0.00 0.00 0.00 66 1016.5
20260901215403 87 224 5.0 13.0 0.00 0.00 0.00 66 1016.4
20260901215306 87 222 5.0 14.0 0.00 0.00 0.00 65 1016.5
20260901215203 87 224 5.0 14.0 0.00 0.00 0.00 65 1016.5
20260901215102 88 225 5.0 14.0 0.00 0.00 0.00 65 1016.6
20260901215002 88 228 5.0 14.0 0.00 0.00 0.00 64 1016.6
20260901214923 88 227 5.0 14.0 0.00 0.00 0.00 64 1016.3
20260901214802 88 229 5.0 14.0 0.00 0.00 0.00 64 1016.4
20260901214702 88 230 5.0 14.0 0.00 0.00 0.00 64 1016.3
20260901214625 88 233 5.0 14.0 0.00 0.00 0.00 63 1016.5
20260901214504 88 229 5.0 14.0 0.00 0.00 0.00 63 1016.4
20260901214425 89 229 4.0 14.0 0.00 0.00 0.00 63 1016.5
20260901214302 89 226 4.0 10.0 0.00 0.00 0.00 63 1016.5
20260901214203 89 225 4.0 10.0 0.00 0.00 0.00 63 1016.4
20260901214102 89 225 4.0 10.0 0.00 0.00 0.00 63 1016.2
20260901214003 88 214 4.0 10.0 0.00 0.00 0.00 63 1016.3
20260901213902 88 209 4.0 10.0 0.00 0.00 0.00 64 1016.1
20260901213803 88 208 4.0 10.0 0.00 0.00 0.00 64 1016.4
20260901213702 88 209 4.0 10.0 0.00 0.00 0.00 64 1016.4
20260901213602 88 193 4.0 9.0 0.00 0.00 0.00 65 1016.3
20260901213502 88 197 4.0 9.0 0.00 0.00 0.00 64 1016.4
20260901213402 88 204 4.0 10.0 0.00 0.00 0.00 68 1016.3
20260901213303 88 203 4.0 10.0 0.00 0.00 0.00 68 1016.3
20260901213202 88 197 4.0 10.0 0.00 0.00 0.00 68 1016.1
20260901213102 88 193 4.0 10.0 0.00 0.00 0.00 68 1016.2
20260901213002 88 201 4.0 11.0 0.00 0.00 0.00 68 1016.1
20260901212902 88 198 4.0 11.0 0.00 0.00 0.00 67 1016.3
20260901212802 88 191 4.0 11.0 0.00 0.00 0.00 67 1016.2
20260901212702 88 196 4.0 11.0 0.00 0.00 0.00 68 1016.2
20260901212603 88 196 4.0 11.0 0.00 0.00 0.00 68 1016.1
20260901212503 88 188 4.0 11.0 0.00 0.00 0.00 68 1016.1
20260901212403 88 178 3.0 11.0 0.00 0.00 0.00 68 1016.3
20260901212306 88 179 3.0 11.0 0.00 0.00 0.00 68 1016.2
20260901212223 88 183 3.0 11.0 0.00 0.00 0.00 68 1016.2
20260901212102 88 192 3.0 11.0 0.00 0.00 0.00 68 1016.4
20260901212003 88 184 3.0 10.0 0.00 0.00 0.00 68 1016.4
20260901211902 88 189 3.0 10.0 0.00 0.00 0.00 68 1016.3
20260901211802 88 200 3.0 9.0 0.00 0.00 0.00 67 1016.4
20260901211703 87 211 3.0 9.0 0.00 0.00 0.00 68 1016.4
20260901211602 87 220 3.0 9.0 0.00 0.00 0.00 69 1016.5
20260901211502 87 222 3.0 9.0 0.00 0.00 0.00 69 1016.3
20260901211403 87 221 3.0 9.0 0.00 0.00 0.00 69 1016.4
20260901211302 87 219 4.0 10.0 0.00 0.00 0.00 69 1016.3
20260901211223 87 209 4.0 10.0 0.00 0.00 0.00 69 1016.3
20260901211103 87 207 4.0 10.0 0.00 0.00 0.00 68 1016.4
20260901211002 87 204 4.0 10.0 0.00 0.00 0.00 68 1016.5
20260901210903 87 208 4.0 10.0 0.00 0.00 0.00 68 1016.6
20260901210802 87 203 4.0 10.0 0.00 0.00 0.00 69 1016.6
20260901210723 87 197 4.0 10.0 0.00 0.00 0.00 68 1016.4
20260901210603 88 194 4.0 10.0 0.00 0.00 0.00 68 1016.4
20260901210502 88 189 4.0 10.0 0.00 0.00 0.00 68 1016.4
20260901210403 88 188 4.0 10.0 0.00 0.00 0.00 67 1016.6
20260901210323 88 181 4.0 10.0 0.00 0.00 0.00 67 1016.5
20260901210202 89 187 4.0 10.0 0.00 0.00 0.00 66 1016.4
20260901210002 88 191 4.0 10.0 0.00 0.00 0.00 66 1016.4
20260901205902 88 191 4.0 10.0 0.00 0.00 0.00 66 1016.6
20260901205804 88 193 4.0 10.0 0.00 0.00 0.00 67 1016.5
20260901205702 88 190 4.0 10.0 0.00 0.00 0.00 67 1016.5
20260901205603 89 185 3.0 9.0 0.00 0.00 0.00 66 1016.4
20260901205503 89 191 3.0 9.0 0.00 0.00 0.00 66 1016.4
20260901205403 89 186 3.0 9.0 0.00 0.00 0.00 66 1016.5
20260901205306 89 194 3.0 9.0 0.00 0.00 0.00 65 1016.6
20260901205202 89 193 3.0 9.0 0.00 0.00 0.00 65 1016.5
20260901205102 90 187 3.0 7.0 0.00 0.00 0.00 65 1016.4
20260901205003 90 174 2.0 7.0 0.00 0.00 0.00 64 1016.4
20260901204903 91 173 2.0 7.0 0.00 0.00 0.00 63 1016.4
20260901204802 91 167 2.0 7.0 0.00 0.00 0.00 62 1016.4
20260901204702 91 165 2.0 7.0 0.00 0.00 0.00 62 1016.4
20260901204624 91 171 2.0 7.0 0.00 0.00 0.00 62 1016.5
20260901204504 91 176 2.0 8.0 0.00 0.00 0.00 62 1016.3
20260901204423 91 188 2.0 8.0 0.00 0.00 0.00 63 1016.3
20260901204302 91 189 2.0 8.0 0.00 0.00 0.00 62 1016.3
20260901204202 90 200 2.0 8.0 0.00 0.00 0.00 64 1016.3
20260901204102 90 202 2.0 8.0 0.00 0.00 0.00 64 1016.4
20260901204002 90 202 2.0 8.0 0.00 0.00 0.00 65 1016.5
20260901203903 90 206 2.0 8.0 0.00 0.00 0.00 64 1016.4
20260901203804 89 208 2.0 8.0 0.00 0.00 0.00 65 1016.4
20260901203703 90 208 2.0 8.0 0.00 0.00 0.00 66 1016.5
20260901203602 90 208 2.0 8.0 0.00 0.00 0.00 64 1016.4
20260901203502 90 198 2.0 8.0 0.00 0.00 0.00 63 1016.5
20260901203423 89 188 2.0 8.0 0.00 0.00 0.00 63 1016.4
20260901203303 89 203 3.0 8.0 0.00 0.00 0.00 65 1016.5
20260901203202 89 194 3.0 8.0 0.00 0.00 0.00 65 1016.4
20260901203104 89 204 3.0 8.0 0.00 0.00 0.00 65 1016.6
20260901203004 88 213 3.0 8.0 0.00 0.00 0.00 65 1016.5
20260901202902 88 217 3.0 8.0 0.00 0.00 0.00 65 1016.6
20260901202802 87 212 4.0 9.0 0.00 0.00 0.00 65 1016.5
20260901202702 87 213 4.0 11.0 0.00 0.00 0.00 65 1016.4
20260901202602 87 210 4.0 11.0 0.00 0.00 0.00 66 1016.5
20260901202503 88 217 4.0 11.0 0.00 0.00 0.00 66 1016.6
20260901202403 88 218 4.0 11.0 0.00 0.00 0.00 66 1016.4
20260901202325 88 220 4.0 11.0 0.00 0.00 0.00 66 1016.6
20260901202202 88 221 4.0 11.0 0.00 0.00 0.00 66 1016.5
20260901202104 88 218 4.0 11.0 0.00 0.00 0.00 65 1016.5
20260901202003 88 217 4.0 11.0 0.00 0.00 0.00 65 1016.7
20260901201902 88 215 4.0 11.0 0.00 0.00 0.00 64 1016.4
20260901201803 88 217 3.0 11.0 0.00 0.00 0.00 64 1016.4
20260901201702 89 217 3.0 11.0 0.00 0.00 0.00 65 1016.3
20260901201604 89 219 4.0 11.0 0.00 0.00 0.00 64 1016.4
20260901201502 89 218 3.0 11.0 0.00 0.00 0.00 64 1016.4
20260901201402 89 217 3.0 10.0 0.00 0.00 0.00 65 1016.4
20260901201303 89 209 3.0 10.0 0.00 0.00 0.00 63 1016.4
20260901201225 89 218 3.0 11.0 0.00 0.00 0.00 63 1016.6
20260901201102 89 222 4.0 11.0 0.00 0.00 0.00 63 1016.4
20260901201003 89 226 4.0 11.0 0.00 0.00 0.00 64 1016.4
20260901200923 89 226 4.0 11.0 0.00 0.00 0.00 64 1016.3
20260901200824 89 221 4.0 11.0 0.00 0.00 0.00 64 1016.3
20260901200704 89 226 4.0 11.0 0.00 0.00 0.00 63 1016.5
20260901200604 89 231 4.0 11.0 0.00 0.00 0.00 64 1016.3
20260901200503 89 232 4.0 11.0 0.00 0.00 0.00 63 1016.2
20260901200424 89 225 4.0 11.0 0.00 0.00 0.00 63 1016.7
20260901200304 90 228 4.0 11.0 0.00 0.00 0.00 63 1016.3
20260901200202 91 226 4.0 10.0 0.00 0.00 0.00 63 1016.4
20260901200004 90 223 4.0 10.0 0.00 0.00 0.00 61 1016.2
20260901195903 90 228 4.0 10.0 0.00 0.00 0.00 62 1016.3
20260901195824 90 231 4.0 10.0 0.00 0.00 0.00 63 1016.5
20260901195702 91 225 3.0 9.0 0.00 0.00 0.00 61 1016.3
20260901195603 91 211 3.0 9.0 0.00 0.00 0.00 61 1016.3
20260901195503 91 206 3.0 9.0 0.00 0.00 0.00 61 1016.2
20260901195402 91 215 3.0 8.0 0.00 0.00 0.00 61 1016.3
20260901195323 91 219 3.0 9.0 0.00 0.00 0.00 61 1016.3
20260901195204 91 205 3.0 9.0 0.00 0.00 0.00 60 1016.4
20260901195103 91 201 3.0 9.0 0.00 0.00 0.00 61 1016.2
20260901195023 91 199 3.0 9.0 0.00 0.00 0.00 61 1016.1
20260901194903 91 200 3.0 9.0 0.00 0.00 0.00 60 1016.3
20260901194803 91 202 3.0 9.0 0.00 0.00 0.00 60 1016.1
20260901194702 91 203 3.0 9.0 0.00 0.00 0.00 60 1016.2
20260901194602 91 208 3.0 9.0 0.00 0.00 0.00 60 1016.0
20260901194524 91 209 3.0 9.0 0.00 0.00 0.00 60 1015.9
20260901194402 91 208 3.0 9.0 0.00 0.00 0.00 60 1016.2
20260901194323 91 213 3.0 9.0 0.00 0.00 0.00 59 1016.0
20260901194203 91 229 3.0 9.0 0.00 0.00 0.00 59 1016.0
20260901194102 90 236 3.0 9.0 0.00 0.00 0.00 60 1016.2
20260901194002 90 243 3.0 9.0 0.00 0.00 0.00 59 1016.1
20260901193923 90 241 3.0 8.0 0.00 0.00 0.00 60 1016.0
20260901193802 90 239 3.0 8.0 0.00 0.00 0.00 60 1016.0
20260901193702 90 244 3.0 8.0 0.00 0.00 0.00 60 1016.3
20260901193602 89 259 3.0 8.0 0.00 0.00 0.00 60 1016.1
20260901193502 89 258 3.0 8.0 0.00 0.00 0.00 62 1016.1
20260901193403 89 251 3.0 8.0 0.00 0.00 0.00 61 1016.1
20260901193302 90 248 3.0 8.0 0.00 0.00 0.00 60 1016.2
20260901193224 90 256 3.0 9.0 0.00 0.00 0.00 60 1016.2
20260901193102 90 256 3.0 9.0 0.00 0.00 0.00 59 1016.3
20260901193003 90 251 3.0 9.0 0.00 0.00 0.00 60 1016.1
20260901192924 90 247 4.0 9.0 0.00 0.00 0.00 60 1016.2
20260901192803 89 243 4.0 9.0 0.00 0.00 0.00 61 1016.0
20260901192702 89 242 4.0 9.0 0.00 0.00 0.00 61 1016.0
20260901192603 89 229 4.0 9.0 0.00 0.00 0.00 61 1016.0
20260901192503 89 226 4.0 9.0 0.00 0.00 0.00 62 1016.0
20260901192404 90 230 4.0 9.0 0.00 0.00 0.00 59 1016.2
20260901192306 90 226 4.0 9.0 0.00 0.00 0.00 60 1016.0
20260901192202 90 211 4.0 9.0 0.00 0.00 0.00 59 1016.0
20260901192102 90 204 4.0 9.0 0.00 0.00 0.00 60 1016.1
20260901192002 90 192 3.0 8.0 0.00 0.00 0.00 59 1016.1
20260901191903 90 193 3.0 8.0 0.00 0.00 0.00 59 1016.1
20260901191803 90 188 3.0 8.0 0.00 0.00 0.00 58 1016.1
20260901191702 90 185 3.0 8.0 0.00 0.00 0.00 59 1016.2
20260901191603 91 192 3.0 8.0 0.00 0.00 0.00 60 1016.0
20260901191502 91 191 3.0 8.0 0.00 0.00 0.00 60 1016.1
20260901191403 91 188 3.0 8.0 0.00 0.00 0.00 62 1016.1
20260901191323 91 184 3.0 8.0 0.00 0.00 0.00 60 1015.7
20260901191202 91 182 3.0 8.0 0.00 0.00 0.00 59 1016.0
20260901191104 91 181 3.0 8.0 0.00 0.00 0.00 59 1016.1
20260901191003 91 176 3.0 8.0 0.00 0.00 0.00 60 1015.9
20260901190902 90 177 3.0 8.0 0.00 0.00 0.00 61 1015.9
20260901190823 90 184 3.0 9.0 0.00 0.00 0.00 60 1016.0
20260901190703 90 180 4.0 9.0 0.00 0.00 0.00 61 1016.0
20260901190603 89 172 4.0 9.0 0.00 0.00 0.00 62 1016.0
20260901190502 89 175 4.0 9.0 0.00 0.00 0.00 62 1016.0
20260901190404 89 171 4.0 9.0 0.00 0.00 0.00 63 1016.1
20260901190303 89 170 4.0 9.0 0.00 0.00 0.00 63 1016.0
20260901190202 89 172 4.0 9.0 0.00 0.00 0.00 63 1015.9
20260901190002 90 177 4.0 9.0 0.00 0.00 0.00 62 1016.1
20260901185904 90 180 4.0 9.0 0.00 0.00 0.00 63 1015.9
20260901185803 90 181 3.0 8.0 0.00 0.00 0.00 61 1016.0
20260901185703 90 190 3.0 8.0 0.00 0.00 0.00 61 1016.0
20260901185602 90 205 3.0 8.0 0.00 0.00 0.00 62 1016.0
20260901185502 90 207 3.0 8.0 0.00 0.00 0.00 62 1015.9
20260901185403 90 212 3.0 8.0 0.00 0.00 0.00 62 1015.9
20260901185305 90 219 3.0 8.0 0.00 0.00 0.00 63 1015.9
20260901185202 90 225 3.0 8.0 0.00 0.00 0.00 63 1015.9
20260901185103 89 231 3.0 8.0 0.00 0.00 0.00 61 1016.0
20260901185002 89 229 3.0 7.0 0.00 0.00 0.00 63 1016.1
20260901184904 89 231 3.0 7.0 0.00 0.00 0.00 62 1016.1
20260901184802 90 224 3.0 8.0 0.00 0.00 0.00 65 1016.1
20260901184702 90 222 3.0 8.0 0.00 0.00 0.00 62 1016.2
20260901184603 90 218 3.0 8.0 0.00 0.00 0.00 61 1016.2
20260901184502 90 223 3.0 8.0 0.00 0.00 0.00 62 1016.1
20260901184424 90 218 3.0 8.0 0.00 0.00 0.00 62 1016.3
20260901184304 90 217 3.0 8.0 0.00 0.00 0.00 62 1016.1
20260901184203 89 203 3.0 8.0 0.00 0.00 0.00 63 1016.1
20260901184103 89 210 3.0 13.0 0.00 0.00 0.00 63 1016.2
20260901184002 89 213 4.0 13.0 0.00 0.00 0.00 63 1016.1
20260901183902 89 210 4.0 13.0 0.00 0.00 0.00 62 1016.3
20260901183824 89 210 4.0 13.0 0.00 0.00 0.00 62 1016.3
20260901183704 89 206 4.0 13.0 0.00 0.00 0.00 63 1016.2
20260901183602 90 205 4.0 13.0 0.00 0.00 0.00 62 1016.2
20260901183503 89 200 4.0 13.0 0.00 0.00 0.00 61 1016.2
20260901183402 89 200 4.0 13.0 0.00 0.00 0.00 62 1016.2
20260901183303 89 193 4.0 13.0 0.00 0.00 0.00 62 1016.3
20260901183202 89 193 4.0 13.0 0.00 0.00 0.00 62 1016.3
20260901183104 89 184 4.0 13.0 0.00 0.00 0.00 62 1016.2
20260901183005 89 170 4.0 8.0 0.00 0.00 0.00 62 1016.2
20260901182923 89 178 4.0 8.0 0.00 0.00 0.00 63 1016.2
20260901182803 89 187 4.0 8.0 0.00 0.00 0.00 62 1016.2
20260901182702 90 184 4.0 8.0 0.00 0.00 0.00 62 1016.4
20260901182602 90 177 3.0 8.0 0.00 0.00 0.00 63 1016.4
20260901182524 90 183 3.0 8.0 0.00 0.00 0.00 64 1016.4
20260901182402 89 197 4.0 8.0 0.00 0.00 0.00 64 1016.4
20260901182305 89 205 3.0 8.0 0.00 0.00 0.00 64 1016.3
20260901182202 89 210 3.0 8.0 0.00 0.00 0.00 64 1016.4
20260901182123 89 217 4.0 10.0 0.00 0.00 0.00 65 1016.4
20260901182003 89 230 4.0 10.0 0.00 0.00 0.00 66 1016.2
20260901181925 89 231 4.0 10.0 0.00 0.00 0.00 65 1016.3
20260901181802 88 227 3.0 10.0 0.00 0.00 0.00 65 1016.2
20260901181703 88 227 4.0 10.0 0.00 0.00 0.00 66 1016.4
20260901181604 88 229 4.0 10.0 0.00 0.00 0.00 65 1016.3
20260901181502 88 224 3.0 10.0 0.00 0.00 0.00 64 1016.5
20260901181402 88 220 3.0 10.0 0.00 0.00 0.00 65 1016.2
20260901181302 87 224 4.0 10.0 0.00 0.00 0.00 65 1016.3
20260901181204 88 226 4.0 10.0 0.00 0.00 0.00 66 1016.5
20260901181104 88 230 4.0 8.0 0.00 0.00 0.00 65 1016.5
20260901181003 88 233 4.0 8.0 0.00 0.00 0.00 65 1016.4
20260901180903 88 234 4.0 8.0 0.00 0.00 0.00 65 1016.4
20260901180802 88 237 4.0 8.0 0.00 0.00 0.00 66 1016.6
20260901180703 88 239 4.0 8.0 0.00 0.00 0.00 67 1016.6
20260901180602 88 243 4.0 8.0 0.00 0.00 0.00 67 1016.5
20260901180502 87 242 4.0 8.0 0.00 0.00 0.00 67 1016.5
20260901180402 87 234 4.0 8.0 0.00 0.00 0.00 67 1016.6
20260901180304 87 228 3.0 8.0 0.00 0.00 0.00 67 1016.4
20260901180224 87 225 3.0 8.0 0.00 0.00 0.00 67 1016.7
20260901180003 88 206 3.0 8.0 0.00 0.00 0.00 66 1016.4
20260901175904 88 218 3.0 9.0 0.00 0.00 0.00 65 1016.5
20260901175824 88 221 3.0 9.0 0.00 0.00 0.00 65 1016.6
20260901175703 88 213 3.0 9.0 0.00 0.00 0.00 65 1016.4
20260901175602 88 202 3.0 9.0 0.00 0.00 0.00 66 1016.4
20260901175523 88 205 3.0 9.0 0.00 0.00 0.00 66 1016.6
20260901175402 87 217 3.0 9.0 0.00 0.00 0.00 64 1016.5
20260901175305 87 228 3.0 9.0 0.00 0.00 0.00 66 1016.4
20260901175203 87 222 3.0 9.0 0.00 0.00 0.00 67 1016.5
20260901175102 87 221 3.0 9.0 0.00 0.00 0.00 67 1016.5
20260901175003 87 210 3.0 9.0 0.00 0.00 0.00 68 1016.4
20260901174902 87 206 3.0 9.0 0.00 0.00 0.00 67 1016.5
20260901174802 87 204 3.0 9.0 0.00 0.00 0.00 67 1016.5
20260901174703 87 206 3.0 9.0 0.00 0.00 0.00 67 1016.4
20260901174603 87 216 4.0 9.0 0.00 0.00 0.00 67 1016.3
20260901174502 88 215 4.0 9.0 0.00 0.00 0.00 67 1016.3
20260901174424 88 217 4.0 9.0 0.00 0.00 0.00 66 1016.5
20260901174302 88 222 4.0 9.0 0.00 0.00 0.00 67 1016.3
20260901174203 88 228 4.0 9.0 0.00 0.00 0.00 67 1016.4
20260901174102 87 226 4.0 9.0 0.00 0.00 0.00 67 1016.3
20260901174023 87 223 4.0 9.0 0.00 0.00 0.00 67 1016.2
20260901173902 88 219 4.0 9.0 0.00 0.00 0.00 66 1016.5
20260901173824 88 216 4.0 13.0 0.00 0.00 0.00 66 1016.2
20260901173702 88 216 4.0 13.0 0.00 0.00 0.00 66 1016.5
20260901173602 88 212 4.0 13.0 0.00 0.00 0.00 67 1016.3
20260901173503 88 210 3.0 13.0 0.00 0.00 0.00 67 1016.3
20260901173424 88 206 3.0 13.0 0.00 0.00 0.00 67 1016.4
20260901173302 88 195 3.0 13.0 0.00 0.00 0.00 67 1016.4
20260901173223 88 188 3.0 13.0 0.00 0.00 0.00 67 1016.5
20260901173123 88 183 3.0 13.0 0.00 0.00 0.00 66 1016.4
20260901173002 89 183 3.0 13.0 0.00 0.00 0.00 66 1016.5
20260901172902 89 189 3.0 13.0 0.00 0.00 0.00 66 1016.6
20260901172802 89 191 3.0 7.0 0.00 0.00 0.00 65 1016.4
20260901172703 89 185 3.0 8.0 0.00 0.00 0.00 65 1016.6
20260901172602 90 185 3.0 8.0 0.00 0.00 0.00 65 1016.6
20260901172503 90 199 3.0 8.0 0.00 0.00 0.00 65 1016.4
20260901172402 90 205 3.0 8.0 0.00 0.00 0.00 64 1016.2
20260901172305 89 214 3.0 8.0 0.00 0.00 0.00 65 1016.5
20260901172203 89 220 3.0 8.0 0.00 0.00 0.00 65 1016.5
20260901172102 89 240 4.0 8.0 0.00 0.00 0.00 65 1016.4
20260901172002 89 248 4.0 8.0 0.00 0.00 0.00 65 1016.6
20260901171923 89 250 4.0 9.0 0.00 0.00 0.00 65 1016.6
20260901171823 89 243 4.0 9.0 0.00 0.00 0.00 65 1016.7
20260901171703 89 249 4.0 11.0 0.00 0.00 0.00 65 1016.5
20260901171602 89 249 4.0 11.0 0.00 0.00 0.00 65 1016.5
20260901171502 88 246 4.0 11.0 0.00 0.00 0.00 66 1016.6
20260901171402 88 241 4.0 11.0 0.00 0.00 0.00 66 1016.5
20260901171302 88 242 4.0 11.0 0.00 0.00 0.00 65 1016.7
20260901171203 89 237 4.0 11.0 0.00 0.00 0.00 66 1016.8
20260901171102 89 234 4.0 11.0 0.00 0.00 0.00 65 1016.7
20260901171002 89 231 4.0 11.0 0.00 0.00 0.00 65 1016.7
20260901170924 89 230 4.0 11.0 0.00 0.00 0.00 65 1016.7
20260901170804 89 232 4.0 11.0 0.00 0.00 0.00 65 1016.6
20260901170702 89 230 4.0 11.0 0.00 0.00 0.00 64 1016.7
20260901170602 89 238 4.0 11.0 0.00 0.00 0.00 65 1016.8
20260901170502 88 236 5.0 11.0 0.00 0.00 0.00 64 1016.9
20260901170403 88 246 5.0 11.0 0.00 0.00 0.00 65 1016.8
20260901170303 88 245 5.0 11.0 0.00 0.00 0.00 65 1016.7
20260901170204 88 252 5.0 11.0 0.00 0.00 0.00 67 1016.9
20260901170004 88 254 5.0 11.0 0.00 0.00 0.00 67 1016.9
20260901165902 88 254 5.0 11.0 0.00 0.00 0.00 67 1016.8
20260901165804 88 255 4.0 11.0 0.00 0.00 0.00 66 1016.9
20260901165724 88 264 4.0 11.0 0.00 0.00 0.00 67 1016.7
20260901165603 88 252 4.0 8.0 0.00 0.00 0.00 65 1016.8
20260901165503 88 262 4.0 13.0 0.00 0.00 0.00 65 1016.7
20260901165403 88 259 4.0 13.0 0.00 0.00 0.00 66 1016.8
20260901165306 87 261 4.0 13.0 0.00 0.00 0.00 67 1016.9
20260901165202 87 260 5.0 13.0 0.00 0.00 0.00 67 1017.0
20260901165102 88 256 5.0 13.0 0.00 0.00 0.00 67 1016.8
20260901165004 88 257 5.0 13.0 0.00 0.00 0.00 66 1016.9
20260901164902 88 258 4.0 13.0 0.00 0.00 0.00 66 1016.9
20260901164803 88 255 4.0 13.0 0.00 0.00 0.00 67 1016.8
20260901164704 88 245 4.0 13.0 0.00 0.00 0.00 67 1016.9
20260901164602 88 245 4.0 13.0 0.00 0.00 0.00 66 1017.0
20260901164502 88 241 4.0 9.0 0.00 0.00 0.00 68 1017.1
20260901164402 88 234 4.0 9.0 0.00 0.00 0.00 67 1017.1
20260901164302 88 233 4.0 9.0 0.00 0.00 0.00 67 1017.0
20260901164202 87 234 4.0 9.0 0.00 0.00 0.00 68 1017.1
20260901164102 87 243 4.0 7.0 0.00 0.00 0.00 68 1017.1
20260901164024 87 240 4.0 7.0 0.00 0.00 0.00 68 1017.1
20260901163902 87 235 4.0 8.0 0.00 0.00 0.00 69 1016.8
20260901163803 87 235 4.0 11.0 0.00 0.00 0.00 68 1017.1
20260901163702 87 243 4.0 11.0 0.00 0.00 0.00 67 1017.1
20260901163602 87 239 4.0 11.0 0.00 0.00 0.00 68 1017.0
20260901163502 87 239 4.0 11.0 0.00 0.00 0.00 68 1017.1
20260901163402 87 238 4.0 11.0 0.00 0.00 0.00 69 1016.9
20260901163304 87 236 4.0 11.0 0.00 0.00 0.00 68 1017.0
20260901163202 87 232 4.0 11.0 0.00 0.00 0.00 68 1017.1
20260901163102 87 225 4.0 11.0 0.00 0.00 0.00 68 1017.1
20260901163002 87 231 3.0 11.0 0.00 0.00 0.00 67 1017.2
20260901162904 88 226 3.0 11.0 0.00 0.00 0.00 68 1017.0
20260901162803 88 222 3.0 9.0 0.00 0.00 0.00 67 1017.1
20260901162725 88 208 3.0 9.0 0.00 0.00 0.00 66 1017.1
20260901162604 88 214 3.0 7.0 0.00 0.00 0.00 67 1017.0
20260901162502 88 227 3.0 7.0 0.00 0.00 0.00 67 1017.1
20260901162402 87 236 3.0 7.0 0.00 0.00 0.00 68 1017.2
20260901162306 87 246 3.0 7.0 0.00 0.00 0.00 67 1017.0
20260901162207 87 249 3.0 7.0 0.00 0.00 0.00 68 1017.0
20260901162102 87 266 3.0 7.0 0.00 0.00 0.00 68 1017.0
20260901162004 86 274 3.0 7.0 0.00 0.00 0.00 69 1017.0
20260901161902 86 268 3.0 7.0 0.00 0.00 0.00 70 1017.0
20260901161804 86 265 3.0 7.0 0.00 0.00 0.00 68 1017.0
20260901161702 86 277 3.0 7.0 0.00 0.00 0.00 69 1017.1
20260901161602 86 302 3.0 7.0 0.00 0.00 0.00 69 1017.0
20260901161504 87 299 3.0 7.0 0.00 0.00 0.00 68 1016.7
20260901161404 87 297 3.0 9.0 0.00 0.00 0.00 69 1017.1
20260901161302 87 250 3.0 9.0 0.00 0.00 0.00 68 1017.1
20260901161202 87 238 3.0 9.0 0.00 0.00 0.00 70 1016.9
20260901161124 87 245 2.0 9.0 0.00 0.00 0.00 70 1017.2
20260901161023 87 253 3.0 9.0 0.00 0.00 0.00 68 1017.2
20260901160902 87 290 3.0 9.0 0.00 0.00 0.00 68 1017.1
20260901160802 86 296 3.0 9.0 0.00 0.00 0.00 69 1017.0
20260901160725 86 290 3.0 10.0 0.00 0.00 0.00 69 1017.1
20260901160602 86 279 4.0 10.0 0.00 0.00 0.00 69 1017.2
20260901160502 86 270 4.0 10.0 0.00 0.00 0.00 68 1017.1
20260901160403 86 265 4.0 10.0 0.00 0.00 0.00 69 1017.2
20260901160302 85 261 4.0 10.0 0.00 0.00 0.00 69 1017.1
20260901160224 85 260 4.0 10.0 0.00 0.00 0.00 70 1017.1
20260901160004 85 243 4.0 10.0 0.00 0.00 0.00 72 1017.1
20260901155902 85 243 4.0 10.0 0.00 0.00 0.00 71 1017.2
20260901155802 85 245 4.0 10.0 0.00 0.00 0.00 70 1017.0
20260901155703 85 238 4.0 8.0 0.00 0.00 0.00 71 1017.1
20260901155602 86 231 4.0 8.0 0.00 0.00 0.00 69 1017.0
20260901155502 86 231 4.0 10.0 0.00 0.00 0.00 69 1017.2
20260901155424 86 233 4.0 10.0 0.00 0.00 0.00 68 1017.1
20260901155305 85 245 4.0 10.0 0.00 0.00 0.00 68 1017.1
20260901155223 85 250 4.0 10.0 0.00 0.00 0.00 69 1017.0
20260901155102 85 260 4.0 13.0 0.00 0.00 0.00 70 1017.0
20260901155003 85 257 4.0 13.0 0.00 0.00 0.00 71 1017.1
20260901154904 85 249 4.0 13.0 0.00 0.00 0.00 70 1017.2
20260901154824 85 241 4.0 13.0 0.00 0.00 0.00 70 1017.2
20260901154703 85 241 4.0 13.0 0.00 0.00 0.00 70 1017.1
20260901154604 85 242 4.0 13.0 0.00 0.00 0.00 70 1017.0
20260901154502 85 243 4.0 13.0 0.00 0.00 0.00 70 1017.1
20260901154403 85 240 4.0 13.0 0.00 0.00 0.00 70 1017.3
20260901154304 85 239 4.0 13.0 0.00 0.00 0.00 70 1017.2
20260901154204 85 240 4.0 13.0 0.00 0.00 0.00 71 1017.2
20260901154103 85 232 4.0 9.0 0.00 0.00 0.00 69 1017.0
20260901154024 85 229 4.0 9.0 0.00 0.00 0.00 69 1017.0
20260901153902 85 235 4.0 9.0 0.00 0.00 0.00 71 1017.1
20260901153804 85 236 4.0 9.0 0.00 0.00 0.00 70 1017.1
20260901153703 85 245 4.0 9.0 0.00 0.00 0.00 72 1017.0
20260901153602 85 247 5.0 11.0 0.00 0.00 0.00 71 1017.1
20260901153524 85 245 4.0 11.0 0.00 0.00 0.00 70 1017.1
20260901153403 85 252 4.0 11.0 0.00 0.00 0.00 71 1017.0
20260901153302 85 255 4.0 11.0 0.00 0.00 0.00 71 1017.1
20260901153202 85 256 4.0 11.0 0.00 0.00 0.00 71 1017.1
20260901153102 85 259 4.0 11.0 0.00 0.00 0.00 72 1016.9
20260901153004 85 262 4.0 11.0 0.00 0.00 0.00 72 1017.1
20260901152902 84 268 4.0 11.0 0.00 0.00 0.00 72 1016.9
20260901152803 84 268 4.0 11.0 0.00 0.00 0.00 73 1016.9
20260901152702 84 261 3.0 11.0 0.00 0.00 0.00 72 1017.0
20260901152604 84 263 3.0 7.0 0.00 0.00 0.00 72 1017.1
20260901152504 84 257 3.0 7.0 0.00 0.00 0.00 73 1017.0
20260901152402 84 259 3.0 9.0 0.00 0.00 0.00 73 1017.0
20260901152306 84 268 3.0 9.0 0.00 0.00 0.00 73 1017.0
20260901152203 84 258 3.0 9.0 0.00 0.00 0.00 73 1017.1
20260901152102 84 276 3.0 9.0 0.00 0.00 0.00 73 1016.8
20260901152004 84 320 3.0 9.0 0.00 0.00 0.00 73 1017.0
20260901151902 84 314 3.0 9.0 0.00 0.00 0.00 73 1017.1
20260901151823 83 327 3.0 9.0 0.00 0.00 0.00 74 1017.0
20260901151702 83 314 3.0 9.0 0.00 0.00 0.00 74 1017.1
20260901151602 83 313 3.0 9.0 0.00 0.00 0.00 73 1017.3
20260901151502 84 345 3.0 9.0 0.00 0.00 0.00 74 1017.2
20260901151404 84 327 3.0 9.0 0.00 0.00 0.00 72 1017.1
20260901151303 84 318 3.0 8.0 0.00 0.00 0.00 75 1017.1
20260901151203 84 278 3.0 8.0 0.00 0.00 0.00 73 1017.3
20260901151123 84 259 3.0 8.0 0.00 0.00 0.00 73 1017.2
20260901151003 84 267 3.0 8.0 0.00 0.00 0.00 74 1017.1
20260901150924 84 282 3.0 8.0 0.00 0.00 0.00 73 1017.0
20260901150804 84 280 3.0 8.0 0.00 0.00 0.00 73 1017.1
20260901150704 84 270 3.0 7.0 0.00 0.00 0.00 73 1017.1
20260901150602 84 267 3.0 10.0 0.00 0.00 0.00 74 1016.9
20260901150523 84 268 4.0 10.0 0.00 0.00 0.00 73 1016.9
20260901150402 84 265 4.0 10.0 0.00 0.00 0.00 72 1017.0
20260901150302 84 272 4.0 10.0 0.00 0.00 0.00 71 1017.0
20260901150202 84 283 4.0 10.0 0.00 0.00 0.00 72 1017.1
20260901150124 84 286 4.0 10.0 0.00 0.00 0.00 73 1017.2
20260901150004 84 287 4.0 10.0 0.00 0.00 0.00 73 1017.1
20260901145904 84 279 4.0 10.0 0.00 0.00 0.00 73 1017.2
20260901145803 84 276 4.0 10.0 0.00 0.00 0.00 73 1017.0
20260901145702 84 272 4.0 10.0 0.00 0.00 0.00 74 1017.0
20260901145625 84 267 4.0 10.0 0.00 0.00 0.00 72 1017.2
20260901145504 84 266 4.0 10.0 0.00 0.00 0.00 73 1016.9
20260901145403 84 268 4.0 9.0 0.00 0.00 0.00 73 1016.9
20260901145306 84 262 4.0 9.0 0.00 0.00 0.00 73 1017.0
20260901145224 84 268 4.0 9.0 0.00 0.00 0.00 72 1016.9
20260901145103 84 261 4.0 10.0 0.00 0.00 0.00 73 1017.0
20260901145024 83 255 4.0 10.0 0.00 0.00 0.00 74 1017.0
20260901144902 83 250 4.0 10.0 0.00 0.00 0.00 74 1017.0
20260901144802 83 252 4.0 10.0 0.00 0.00 0.00 74 1017.0
20260901144704 83 248 4.0 10.0 0.00 0.00 0.00 74 1017.1
20260901144603 83 251 4.0 10.0 0.00 0.00 0.00 74 1017.0
20260901144502 83 251 4.0 10.0 0.00 0.00 0.00 74 1017.0
20260901144403 83 248 3.0 10.0 0.00 0.00 0.00 74 1017.2
20260901144302 83 256 4.0 10.0 0.00 0.00 0.00 73 1017.2
20260901144225 83 257 4.0 10.0 0.00 0.00 0.00 73 1017.3
20260901144102 83 259 4.0 9.0 0.00 0.00 0.00 74 1017.1
20260901144002 83 261 4.0 9.0 0.00 0.00 0.00 74 1017.1
20260901143902 83 267 4.0 9.0 0.00 0.00 0.00 73 1017.2
20260901143802 83 268 4.0 9.0 0.00 0.00 0.00 73 1017.2
20260901143704 83 275 4.0 9.0 0.00 0.00 0.00 73 1017.1
20260901143604 83 275 4.0 9.0 0.00 0.00 0.00 73 1017.1
20260901143503 83 260 4.0 9.0 0.00 0.00 0.00 73 1017.1
20260901143404 83 259 4.0 9.0 0.00 0.00 0.00 73 1017.1
20260901143302 83 248 4.0 9.0 0.00 0.00 0.00 73 1016.9
20260901143203 83 246 3.0 8.0 0.00 0.00 0.00 73 1017.0
20260901143102 83 249 4.0 10.0 0.00 0.00 0.00 73 1016.9
20260901143002 83 253 4.0 10.0 0.00 0.00 0.00 73 1017.1
20260901142923 83 244 4.0 10.0 0.00 0.00 0.00 74 1016.9
20260901142803 83 249 4.0 10.0 0.00 0.00 0.00 73 1017.1
20260901142704 83 252 4.0 10.0 0.00 0.00 0.00 73 1017.0
20260901142623 83 248 4.0 10.0 0.00 0.00 0.00 73 1016.9
20260901142503 83 247 4.0 10.0 0.00 0.00 0.00 73 1017.0
20260901142402 83 243 4.0 10.0 0.00 0.00 0.00 74 1017.0
20260901142305 83 243 4.0 10.0 0.00 0.00 0.00 74 1017.0
20260901142202 83 238 4.0 10.0 0.00 0.00 0.00 73 1016.8
20260901142103 83 232 4.0 10.0 0.00 0.00 0.00 73 1016.7
20260901142004 83 227 3.0 10.0 0.00 0.00 0.00 73 1016.9
20260901141923 83 232 3.0 10.0 0.00 0.00 0.00 74 1016.8
20260901141825 83 223 3.0 10.0 0.00 0.00 0.00 73 1016.7
20260901141704 83 223 3.0 10.0 0.00 0.00 0.00 73 1016.8
20260901141625 83 229 3.0 10.0 0.00 0.00 0.00 73 1016.9
20260901141504 83 232 3.0 10.0 0.00 0.00 0.00 73 1017.0
20260901141425 83 241 3.0 10.0 0.00 0.00 0.00 73 1016.9
20260901141302 83 252 3.0 9.0 0.00 0.00 0.00 74 1016.9
20260901141204 83 252 3.0 9.0 0.00 0.00 0.00 74 1016.8
20260901141123 83 250 3.0 9.0 0.00 0.00 0.00 74 1016.8
20260901141025 82 255 3.0 9.0 0.00 0.00 0.00 74 1016.9
20260901140924 82 253 4.0 10.0 0.00 0.00 0.00 74 1016.8
20260901140802 82 256 4.0 10.0 0.00 0.00 0.00 75 1016.7
20260901140702 82 252 4.0 10.0 0.00 0.00 0.00 75 1016.7
20260901140602 82 248 4.0 10.0 0.00 0.00 0.00 75 1016.8
20260901140503 82 245 4.0 10.0 0.00 0.00 0.00 75 1016.7
20260901140425 82 243 4.0 10.0 0.00 0.00 0.00 74 1016.8
20260901140304 82 238 4.0 10.0 0.00 0.00 0.00 75 1016.8
20260901140224 82 242 4.0 10.0 0.00 0.00 0.00 75 1016.8
20260901140002 82 238 4.0 10.0 0.00 0.00 0.00 74 1016.6
20260901135902 82 233 4.0 9.0 0.00 0.00 0.00 75 1016.5
20260901135802 82 233 4.0 9.0 0.00 0.00 0.00 75 1016.7
20260901135704 82 238 3.0 9.0 0.00 0.00 0.00 75 1016.7
20260901135602 82 247 3.0 9.0 0.00 0.00 0.00 75 1016.6
20260901135503 82 243 3.0 8.0 0.00 0.00 0.00 75 1016.6
20260901135423 82 247 3.0 8.0 0.00 0.00 0.00 74 1016.5
20260901135305 82 234 3.0 8.0 0.00 0.00 0.00 75 1016.7
20260901135225 82 235 3.0 8.0 0.00 0.00 0.00 75 1016.8
20260901135124 82 220 3.0 8.0 0.00 0.00 0.00 75 1016.7
20260901135004 82 257 3.0 8.0 0.00 0.00 0.00 76 1016.6
20260901134925 82 265 3.0 8.0 0.00 0.00 0.00 76 1016.9
20260901134802 82 264 3.0 8.0 0.00 0.00 0.00 75 1016.7
20260901134704 82 258 3.0 8.0 0.00 0.00 0.00 75 1016.6
20260901134603 82 233 3.0 8.0 0.00 0.00 0.00 76 1016.8
20260901134502 82 247 3.0 8.0 0.00 0.00 0.00 76 1016.7
20260901134404 82 246 3.0 8.0 0.00 0.00 0.00 76 1016.5
20260901134304 82 260 3.0 8.0 0.00 0.00 0.00 76 1016.6
20260901134203 82 252 3.0 8.0 0.00 0.00 0.00 75 1016.5
20260901134102 82 258 3.0 8.0 0.00 0.00 0.00 75 1016.6
20260901134002 82 249 3.0 8.0 0.00 0.00 0.00 76 1016.5
20260901133902 82 241 3.0 8.0 0.00 0.00 0.00 76 1016.6
20260901133824 82 243 3.0 8.0 0.00 0.00 0.00 76 1016.6
20260901133702 81 244 3.0 8.0 0.00 0.00 0.00 77 1016.7
20260901133602 81 248 3.0 8.0 0.00 0.00 0.00 76 1016.4
20260901133503 81 232 2.0 8.0 0.00 0.00 0.00 76 1016.6
20260901133403 81 212 2.0 6.0 0.00 0.00 0.00 76 1016.7
20260901133303 81 175 2.0 6.0 0.00 0.00 0.00 76 1016.8
20260901133203 81 147 2.0 6.0 0.00 0.00 0.00 77 1016.7
20260901133102 81 147 1.0 6.0 0.00 0.00 0.00 77 1016.7
20260901133003 81 140 1.0 6.0 0.00 0.00 0.00 78 1016.8
20260901132902 81 147 1.0 6.0 0.00 0.00 0.00 77 1016.6
20260901132802 81 140 1.0 6.0 0.00 0.00 0.00 78 1016.7
20260901132702 81 167 2.0 6.0 0.00 0.00 0.00 78 1016.7
20260901132602 81 170 1.0 6.0 0.00 0.00 0.00 78 1016.8
20260901132502 81 169 1.0 6.0 0.00 0.00 0.00 78 1016.8
20260901132404 81 169 1.0 6.0 0.00 0.00 0.00 78 1016.7
20260901132306 81 191 2.0 6.0 0.00 0.00 0.00 78 1016.9
20260901132224 81 193 2.0 6.0 0.00 0.00 0.00 78 1016.9
20260901132102 81 193 2.0 6.0 0.00 0.00 0.00 78 1017.0
20260901132002 81 189 2.0 6.0 0.00 0.00 0.00 78 1016.9
20260901131903 81 191 2.0 6.0 0.00 0.00 0.00 78 1016.9
20260901131804 81 189 2.0 4.0 0.00 0.00 0.00 78 1016.9
20260901131702 81 193 2.0 8.0 0.00 0.00 0.00 79 1016.9
20260901131603 81 199 2.0 8.0 0.00 0.00 0.00 79 1016.9
20260901131504 81 201 2.0 8.0 0.00 0.00 0.00 79 1016.8
20260901131403 81 209 3.0 8.0 0.00 0.00 0.00 79 1017.0
20260901131325 80 212 3.0 8.0 0.00 0.00 0.00 79 1016.9
20260901131224 80 213 3.0 8.0 0.00 0.00 0.00 79 1016.9
20260901131103 80 220 3.0 8.0 0.00 0.00 0.00 79 1016.9
20260901131002 80 225 3.0 8.0 0.00 0.00 0.00 79 1017.0
20260901130903 80 229 3.0 8.0 0.00 0.00 0.00 79 1017.1
20260901130803 80 229 3.0 8.0 0.00 0.00 0.00 79 1017.0
20260901130702 80 228 2.0 8.0 0.00 0.00 0.00 79 1016.9
20260901130624 80 233 2.0 7.0 0.00 0.00 0.00 79 1016.8
20260901130503 80 237 2.0 7.0 0.00 0.00 0.00 80 1017.1
20260901130403 80 222 2.0 7.0 0.00 0.00 0.00 80 1017.0
20260901130302 80 214 2.0 4.0 0.00 0.00 0.00 79 1016.9
20260901130223 80 211 2.0 6.0 0.00 0.00 0.00 80 1017.0
20260901130124 80 195 2.0 6.0 0.00 0.00 0.00 80 1017.0
20260901130003 80 193 2.0 6.0 0.00 0.00 0.00 80 1017.0
20260901125902 80 193 2.0 6.0 0.00 0.00 0.00 80 1017.1
20260901125803 80 193 2.0 6.0 0.00 0.00 0.00 81 1017.1
20260901125702 80 191 2.0 6.0 0.00 0.00 0.00 81 1017.0
20260901125602 80 190 2.0 6.0 0.00 0.00 0.00 80 1017.3
20260901125504 79 191 2.0 6.0 0.00 0.00 0.00 80 1016.9
20260901125404 79 191 2.0 6.0 0.00 0.00 0.00 80 1017.1
20260901125307 79 175 2.0 6.0 0.00 0.00 0.00 80 1017.0
20260901125202 79 178 1.0 4.0 0.00 0.00 0.00 80 1017.1
20260901125104 79 180 1.0 4.0 0.00 0.00 0.00 80 1016.8
20260901125003 79 176 1.0 4.0 0.00 0.00 0.00 80 1017.1
20260901124903 79 177 1.0 4.0 0.00 0.00 0.00 80 1017.0
20260901124803 79 176 1.0 4.0 0.00 0.00 0.00 81 1017.0
20260901124702 79 175 1.0 4.0 0.00 0.00 0.00 81 1016.9
20260901124602 79 177 1.0 4.0 0.00 0.00 0.00 81 1017.0
20260901124503 79 177 1.0 4.0 0.00 0.00 0.00 81 1017.1
20260901124402 79 178 1.0 4.0 0.00 0.00 0.00 81 1017.0
20260901124304 79 176 1.0 4.0 0.00 0.00 0.00 81 1016.9
20260901124203 78 176 1.0 4.0 0.00 0.00 0.00 82 1017.0
20260901124104 78 174 1.0 4.0 0.00 0.00 0.00 82 1017.0
20260901124004 78 173 1.0 4.0 0.00 0.00 0.00 81 1017.2
20260901123902 78 158 0.0 3.0 0.00 0.00 0.00 82 1017.1
20260901123802 78 147 0.0 3.0 0.00 0.00 0.00 82 1017.1
20260901123704 78 164 1.0 4.0 0.00 0.00 0.00 82 1017.1
20260901123603 78 169 1.0 4.0 0.00 0.00 0.00 83 1017.0
20260901123502 78 168 1.0 4.0 0.00 0.00 0.00 82 1017.0
20260901123402 78 176 1.0 4.0 0.00 0.00 0.00 83 1017.0
20260901123302 78 185 1.0 4.0 0.00 0.00 0.00 82 1017.0
20260901123202 78 188 1.0 4.0 0.00 0.00 0.00 82 1017.2
20260901123104 78 191 1.0 4.0 0.00 0.00 0.00 82 1017.2
20260901123002 78 186 1.0 4.0 0.00 0.00 0.00 82 1017.1
20260901122902 78 180 1.0 4.0 0.00 0.00 0.00 82 1017.2
20260901122802 78 195 1.0 4.0 0.00 0.00 0.00 82 1017.1
20260901122724 78 197 1.0 4.0 0.00 0.00 0.00 82 1017.2
20260901122603 78 174 1.0 3.0 0.00 0.00 0.00 82 1017.1
20260901122503 78 177 1.0 3.0 0.00 0.00 0.00 82 1017.1
20260901122424 78 176 1.0 3.0 0.00 0.00 0.00 82 1017.2
20260901122324 78 165 1.0 3.0 0.00 0.00 0.00 82 1017.0
20260901122202 78 170 1.0 3.0 0.00 0.00 0.00 82 1017.3
20260901122103 78 170 1.0 3.0 0.00 0.00 0.00 82 1017.0
20260901122003 78 169 1.0 3.0 0.00 0.00 0.00 82 1017.1
20260901121904 78 172 1.0 3.0 0.00 0.00 0.00 82 1017.2
20260901121802 78 164 1.0 3.0 0.00 0.00 0.00 82 1017.1
20260901121703 78 162 1.0 4.0 0.00 0.00 0.00 82 1017.0
20260901121603 78 164 1.0 4.0 0.00 0.00 0.00 82 1017.1
20260901121502 78 164 1.0 4.0 0.00 0.00 0.00 82 1017.1
20260901121423 78 158 1.0 4.0 0.00 0.00 0.00 82 1016.8
20260901121304 78 154 1.0 4.0 0.00 0.00 0.00 82 1017.1
20260901121203 78 148 1.0 4.0 0.00 0.00 0.00 82 1017.1
20260901121124 78 148 1.0 4.0 0.00 0.00 0.00 82 1016.9
20260901121024 78 143 1.0 4.0 0.00 0.00 0.00 82 1017.0
20260901120903 78 140 1.0 4.0 0.00 0.00 0.00 82 1016.8
20260901120804 78 142 0.0 4.0 0.00 0.00 0.00 82 1016.7
20260901120702 78 136 0.0 2.0 0.00 0.00 0.00 82 1017.0
20260901120603 78 127 0.0 2.0 0.00 0.00 0.00 82 1017.0
20260901120503 78 136 1.0 2.0 0.00 0.00 0.00 82 1016.9
20260901120402 78 137 1.0 2.0 0.00 0.00 0.00 82 1016.9
20260901120304 78 145 1.0 3.0 0.00 0.00 0.00 82 1016.8
20260901120202 78 155 1.0 3.0 0.00 0.00 0.00 82 1016.8
20260901120024 78 156 1.0 3.0 0.00 0.00 0.00 82 1016.9
20260901115902 78 158 1.0 3.0 0.00 0.00 0.00 82 1017.0
20260901115803 78 159 1.0 3.0 0.00 0.00 0.00 82 1017.0
20260901115702 78 157 1.0 3.0 0.00 0.00 0.00 82 1017.0
20260901115603 78 170 1.0 3.0 0.00 0.00 0.00 82 1016.8
20260901115503 78 167 1.0 3.0 0.00 0.00 0.00 82 1016.9
20260901115404 78 174 1.0 3.0 0.00 0.00 0.00 82 1017.0
20260901115306 78 173 1.0 3.0 0.00 0.00 0.00 82 1017.1
20260901115204 78 167 1.0 3.0 0.00 0.00 0.00 82 1016.9
20260901115104 78 170 1.0 3.0 0.00 0.00 0.00 82 1016.9
20260901115002 78 175 1.0 4.0 0.00 0.00 0.00 82 1017.1
20260901114904 78 176 1.0 4.0 0.00 0.00 0.00 82 1017.0
20260901114802 78 183 1.0 4.0 0.00 0.00 0.00 82 1016.9
20260901114703 78 182 1.0 4.0 0.00 0.00 0.00 82 1017.1
20260901114602 78 178 1.0 4.0 0.00 0.00 0.00 82 1017.0
20260901114503 78 179 1.0 4.0 0.00 0.00 0.00 82 1016.9
20260901114404 78 174 1.0 6.0 0.00 0.00 0.00 82 1017.0
20260901114302 78 174 1.0 6.0 0.00 0.00 0.00 82 1016.8
20260901114202 78 177 1.0 6.0 0.00 0.00 0.00 82 1016.9
20260901114102 78 174 1.0 6.0 0.00 0.00 0.00 82 1016.9
20260901114004 78 165 1.0 6.0 0.00 0.00 0.00 82 1017.0
20260901113924 78 167 1.0 6.0 0.00 0.00 0.00 82 1016.9
20260901113825 78 158 1.0 6.0 0.00 0.00 0.00 82 1017.0
20260901113703 78 169 1.0 6.0 0.00 0.00 0.00 82 1016.9
20260901113604 78 170 1.0 6.0 0.00 0.00 0.00 82 1016.9
20260901113504 78 169 1.0 6.0 0.00 0.00 0.00 81 1016.9
20260901113403 77 170 1.0 6.0 0.00 0.00 0.00 82 1016.8
20260901113303 77 165 1.0 3.0 0.00 0.00 0.00 83 1016.9
20260901113203 77 163 1.0 3.0 0.00 0.00 0.00 83 1016.9
20260901113124 77 164 1.0 3.0 0.00 0.00 0.00 83 1016.9
20260901113002 77 181 0.0 3.0 0.00 0.00 0.00 83 1017.0
20260901112904 77 179 0.0 3.0 0.00 0.00 0.00 83 1017.0
20260901112802 77 179 0.0 3.0 0.00 0.00 0.00 83 1016.9
20260901112704 77 140 0.0 2.0 0.00 0.00 0.00 83 1017.0
20260901112604 77 138 0.0 2.0 0.00 0.00 0.00 83 1016.8
20260901112502 77 132 0.0 2.0 0.00 0.00 0.00 84 1016.8
20260901112402 77 139 0.0 2.0 0.00 0.00 0.00 84 1016.9
20260901112325 77 136 0.0 2.0 0.00 0.00 0.00 84 1016.8
20260901112204 77 138 0.0 2.0 0.00 0.00 0.00 84 1017.0
20260901112103 77 160 0.0 4.0 0.00 0.00 0.00 84 1016.8
20260901112003 77 160 1.0 4.0 0.00 0.00 0.00 84 1016.7
20260901111903 77 155 1.0 4.0 0.00 0.00 0.00 83 1017.0
20260901111802 77 153 1.0 4.0 0.00 0.00 0.00 84 1016.8
20260901111702 77 147 1.0 4.0 0.00 0.00 0.00 84 1016.8
20260901111603 77 147 1.0 4.0 0.00 0.00 0.00 84 1016.8
20260901111504 77 147 1.0 4.0 0.00 0.00 0.00 84 1016.9
20260901111404 77 147 1.0 4.0 0.00 0.00 0.00 84 1016.7
20260901111304 77 151 1.0 4.0 0.00 0.00 0.00 84 1016.7
20260901111202 77 150 1.0 4.0 0.00 0.00 0.00 84 1016.9
20260901111103 77 138 1.0 3.0 0.00 0.00 0.00 84 1016.7
20260901111025 77 137 1.0 3.0 0.00 0.00 0.00 84 1016.9
20260901110902 77 139 1.0 4.0 0.00 0.00 0.00 84 1016.9
20260901110824 77 141 1.0 4.0 0.00 0.00 0.00 84 1016.9
20260901110724 77 143 1.0 4.0 0.00 0.00 0.00 84 1016.6
20260901110602 77 156 0.0 4.0 0.00 0.00 0.00 83 1016.8
20260901110502 77 159 0.0 4.0 0.00 0.00 0.00 83 1016.7
20260901110404 77 155 0.0 4.0 0.00 0.00 0.00 84 1016.7
20260901110302 77 159 1.0 4.0 0.00 0.00 0.00 84 1016.9
20260901110223 77 158 1.0 4.0 0.00 0.00 0.00 84 1016.7
20260901110004 77 164 0.0 3.0 0.00 0.00 0.00 84 1016.7
20260901105904 77 162 1.0 3.0 0.00 0.00 0.00 84 1016.7
20260901105803 77 169 1.0 3.0 0.00 0.00 0.00 84 1016.8
20260901105702 77 166 1.0 3.0 0.00 0.00 0.00 84 1016.7
20260901105602 77 161 1.0 3.0 0.00 0.00 0.00 84 1016.7
20260901105525 77 161 1.0 3.0 0.00 0.00 0.00 84 1016.6
20260901105404 77 161 1.0 3.0 0.00 0.00 0.00 84 1016.6
20260901105325 77 154 1.0 3.0 0.00 0.00 0.00 84 1016.5
20260901105203 77 152 1.0 4.0 0.00 0.00 0.00 84 1016.4
20260901105125 77 152 1.0 4.0 0.00 0.00 0.00 84 1016.5
20260901105004 77 150 1.0 4.0 0.00 0.00 0.00 84 1016.6
20260901104902 77 148 1.0 4.0 0.00 0.00 0.00 84 1016.5
20260901104804 77 141 1.0 4.0 0.00 0.00 0.00 84 1016.4
20260901104702 77 140 1.0 4.0 0.00 0.00 0.00 84 1016.4
20260901104604 77 138 1.0 4.0 0.00 0.00 0.00 84 1016.5
20260901104503 77 138 1.0 4.0 0.00 0.00 0.00 84 1016.4
20260901104403 77 138 1.0 4.0 0.00 0.00 0.00 84 1016.5
20260901104303 76 141 1.0 4.0 0.00 0.00 0.00 84 1016.5
20260901104204 76 137 0.0 3.0 0.00 0.00 0.00 85 1016.4
20260901104103 76 133 0.0 2.0 0.00 0.00 0.00 85 1016.6
20260901104003 76 144 0.0 3.0 0.00 0.00 0.00 85 1016.4
20260901103903 76 150 1.0 8.0 0.00 0.00 0.00 85 1016.5
20260901103803 76 149 1.0 8.0 0.00 0.00 0.00 85 1016.5
20260901103702 76 151 1.0 8.0 0.00 0.00 0.00 85 1016.4
20260901103604 76 151 1.0 8.0 0.00 0.00 0.00 85 1016.6
20260901103502 76 151 1.0 8.0 0.00 0.00 0.00 85 1016.3
20260901103403 76 150 1.0 8.0 0.00 0.00 0.00 85 1016.4
20260901103303 76 150 1.0 8.0 0.00 0.00 0.00 85 1016.5
20260901103202 76 149 1.0 8.0 0.00 0.00 0.00 85 1016.4
20260901103103 76 149 1.0 8.0 0.00 0.00 0.00 85 1016.4
20260901103003 76 144 1.0 8.0 0.00 0.00 0.00 85 1016.4
20260901102903 76 126 0.0 2.0 0.00 0.00 0.00 86 1016.5
20260901102802 76 125 0.0 2.0 0.00 0.00 0.00 86 1016.4
20260901102702 76 125 0.0 2.0 0.00 0.00 0.00 86 1016.3
20260901102624 76 125 0.0 2.0 0.00 0.00 0.00 86 1016.4
20260901102524 76 125 0.0 2.0 0.00 0.00 0.00 86 1016.3
20260901102424 76 124 0.0 2.0 0.00 0.00 0.00 86 1016.5
20260901102306 76 122 0.0 2.0 0.00 0.00 0.00 86 1016.4
20260901102203 76 114 0.0 1.0 0.00 0.00 0.00 86 1016.5
20260901102103 76 117 0.0 1.0 0.00 0.00 0.00 86 1016.6
20260901102003 76 117 0.0 1.0 0.00 0.00 0.00 86 1016.4
20260901101904 76 130 0.0 3.0 0.00 0.00 0.00 86 1016.4
20260901101802 76 136 0.0 3.0 0.00 0.00 0.00 86 1016.5
20260901101703 76 132 0.0 3.0 0.00 0.00 0.00 86 1016.5
20260901101604 76 129 0.0 3.0 0.00 0.00 0.00 86 1016.4
20260901101502 76 129 0.0 3.0 0.00 0.00 0.00 86 1016.4
20260901101403 76 130 0.0 3.0 0.00 0.00 0.00 86 1016.4
20260901101302 76 130 0.0 3.0 0.00 0.00 0.00 86 1016.5
20260901101203 76 130 0.0 3.0 0.00 0.00 0.00 86 1016.4
20260901101102 76 127 1.0 3.0 0.00 0.00 0.00 86 1016.3
20260901101003 76 128 1.0 3.0 0.00 0.00 0.00 86 1016.3
20260901100904 76 124 1.0 2.0 0.00 0.00 0.00 86 1016.3
20260901100803 76 120 1.0 2.0 0.00 0.00 0.00 86 1016.4
20260901100702 76 121 1.0 2.0 0.00 0.00 0.00 86 1016.2
20260901100603 76 122 1.0 2.0 0.00 0.00 0.00 86 1016.6
20260901100503 76 123 1.0 3.0 0.00 0.00 0.00 86 1016.4
20260901100402 76 123 1.0 3.0 0.00 0.00 0.00 85 1016.3
20260901100324 76 122 1.0 3.0 0.00 0.00 0.00 86 1016.3
20260901100202 76 123 1.0 3.0 0.00 0.00 0.00 85 1016.4
20260901100104 76 124 1.0 3.0 0.00 0.00 0.00 86 1016.4
20260901100004 76 126 1.0 3.0 0.00 0.00 0.00 85 1016.3
20260901095902 76 126 1.0 3.0 0.00 0.00 0.00 85 1016.3
20260901095802 76 127 1.0 3.0 0.00 0.00 0.00 85 1016.5
20260901095703 76 127 1.0 3.0 0.00 0.00 0.00 85 1016.4
20260901095602 76 127 1.0 3.0 0.00 0.00 0.00 85 1016.3
20260901095503 76 124 1.0 3.0 0.00 0.00 0.00 85 1016.3
20260901095424 76 126 1.0 3.0 0.00 0.00 0.00 86 1016.1
20260901095306 76 126 1.0 3.0 0.00 0.00 0.00 86 1016.4
20260901095202 76 123 0.0 3.0 0.00 0.00 0.00 86 1016.4
20260901095104 76 123 0.0 3.0 0.00 0.00 0.00 86 1016.2
20260901095004 76 118 0.0 2.0 0.00 0.00 0.00 86 1016.4
20260901094903 76 120 0.0 2.0 0.00 0.00 0.00 86 1016.5
20260901094802 76 120 0.0 2.0 0.00 0.00 0.00 86 1016.3
20260901094704 76 120 0.0 2.0 0.00 0.00 0.00 86 1016.0
20260901094624 76 117 0.0 3.0 0.00 0.00 0.00 86 1016.2
20260901094502 76 117 1.0 3.0 0.00 0.00 0.00 86 1016.3
20260901094402 76 116 1.0 3.0 0.00 0.00 0.00 86 1016.5
20260901094303 76 115 1.0 3.0 0.00 0.00 0.00 86 1016.4
20260901094224 76 115 1.0 3.0 0.00 0.00 0.00 86 1016.3
20260901094123 76 114 1.0 3.0 0.00 0.00 0.00 86 1016.2
20260901094003 76 112 1.0 3.0 0.00 0.00 0.00 86 1016.1
20260901093902 76 112 1.0 3.0 0.00 0.00 0.00 86 1016.2
20260901093802 76 117 1.0 3.0 0.00 0.00 0.00 86 1016.3
20260901093702 76 121 1.0 6.0 0.00 0.00 0.00 86 1016.3
20260901093604 75 126 1.0 6.0 0.00 0.00 0.00 86 1016.4
20260901093504 76 126 1.0 6.0 0.00 0.00 0.00 86 1016.3
20260901093402 76 126 1.0 6.0 0.00 0.00 0.00 86 1016.5
20260901093304 76 127 1.0 6.0 0.00 0.00 0.00 86 1016.3
20260901093204 76 129 1.0 6.0 0.00 0.00 0.00 86 1016.2
20260901093104 76 130 1.0 6.0 0.00 0.00 0.00 86 1016.3
20260901093004 76 131 1.0 6.0 0.00 0.00 0.00 86 1016.3
20260901092903 75 131 1.0 6.0 0.00 0.00 0.00 86 1016.3
20260901092804 75 130 1.0 6.0 0.00 0.00 0.00 86 1016.2
20260901092703 75 129 1.0 3.0 0.00 0.00 0.00 86 1016.2
20260901092604 75 130 1.0 3.0 0.00 0.00 0.00 86 1016.4
20260901092503 75 130 1.0 3.0 0.00 0.00 0.00 86 1016.4
20260901092403 75 130 1.0 3.0 0.00 0.00 0.00 86 1016.3
20260901092305 75 131 1.0 3.0 0.00 0.00 0.00 86 1016.4
20260901092224 75 133 1.0 3.0 0.00 0.00 0.00 86 1016.3
20260901092103 75 130 0.0 2.0 0.00 0.00 0.00 86 1016.5
20260901092003 75 129 0.0 2.0 0.00 0.00 0.00 86 1016.4
20260901091902 75 131 0.0 2.0 0.00 0.00 0.00 86 1016.4
20260901091802 75 131 0.0 2.0 0.00 0.00 0.00 86 1016.3
20260901091703 75 131 0.0 2.0 0.00 0.00 0.00 86 1016.3
20260901091603 75 128 0.0 2.0 0.00 0.00 0.00 86 1016.4
20260901091504 75 129 0.0 2.0 0.00 0.00 0.00 86 1016.3
20260901091404 75 130 0.0 2.0 0.00 0.00 0.00 86 1016.3
20260901091304 75 133 0.0 2.0 0.00 0.00 0.00 86 1016.3
20260901091204 75 138 1.0 3.0 0.00 0.00 0.00 86 1016.4
20260901091103 75 139 1.0 3.0 0.00 0.00 0.00 86 1016.4
20260901091004 75 143 1.0 3.0 0.00 0.00 0.00 86 1016.3
20260901090904 75 142 1.0 3.0 0.00 0.00 0.00 86 1016.3
20260901090802 75 139 1.0 3.0 0.00 0.00 0.00 86 1016.6
20260901090703 75 138 1.0 3.0 0.00 0.00 0.00 86 1016.3
20260901090603 76 139 1.0 3.0 0.00 0.00 0.00 86 1016.3
20260901090503 76 142 1.0 3.0 0.00 0.00 0.00 86 1016.4
20260901090403 76 141 1.0 3.0 0.00 0.00 0.00 86 1016.5
20260901090304 76 138 1.0 3.0 0.00 0.00 0.00 86 1016.6
20260901090203 76 135 1.0 3.0 0.00 0.00 0.00 86 1016.6
20260901090104 76 133 1.0 3.0 0.00 0.00 0.00 86 1016.4
20260901090002 75 131 1.0 3.0 0.00 0.00 0.00 86 1016.4
20260901085904 75 130 0.0 3.0 0.00 0.00 0.00 86 1016.6
20260901085804 75 131 0.0 2.0 0.00 0.00 0.00 86 1016.6
20260901085702 75 134 0.0 2.0 0.00 0.00 0.00 86 1016.4
20260901085602 75 133 0.0 2.0 0.00 0.00 0.00 86 1016.5
20260901085502 75 128 0.0 4.0 0.00 0.00 0.00 86 1016.5
20260901085403 76 136 0.0 6.0 0.00 0.00 0.00 86 1016.5
20260901085305 76 139 1.0 6.0 0.00 0.00 0.00 86 1016.5
20260901085204 76 140 1.0 6.0 0.00 0.00 0.00 86 1016.6
20260901085104 76 139 1.0 6.0 0.00 0.00 0.00 86 1016.3
20260901085003 76 137 1.0 6.0 0.00 0.00 0.00 85 1016.6
20260901084902 76 135 1.0 6.0 0.00 0.00 0.00 85 1016.5
20260901084803 76 135 1.0 6.0 0.00 0.00 0.00 85 1016.5
20260901084704 76 134 1.0 6.0 0.00 0.00 0.00 85 1016.4
20260901084603 76 134 1.0 6.0 0.00 0.00 0.00 85 1016.4
20260901084504 76 130 1.0 6.0 0.00 0.00 0.00 85 1016.5
20260901084402 76 123 1.0 4.0 0.00 0.00 0.00 85 1016.5
20260901084323 76 123 1.0 4.0 0.00 0.00 0.00 85 1016.3
20260901084204 76 127 1.0 4.0 0.00 0.00 0.00 85 1016.4
20260901084103 76 129 1.0 4.0 0.00 0.00 0.00 85 1016.5
20260901084003 76 129 1.0 4.0 0.00 0.00 0.00 85 1016.4
20260901083903 76 129 1.0 4.0 0.00 0.00 0.00 85 1016.5
20260901083803 76 130 1.0 4.0 0.00 0.00 0.00 84 1016.5
20260901083724 76 130 1.0 4.0 0.00 0.00 0.00 84 1016.4
20260901083604 76 131 1.0 4.0 0.00 0.00 0.00 84 1016.3
20260901083504 76 130 1.0 4.0 0.00 0.00 0.00 84 1016.5
20260901083424 76 130 1.0 4.0 0.00 0.00 0.00 84 1016.4
20260901083304 76 128 1.0 4.0 0.00 0.00 0.00 84 1016.5
20260901083203 76 124 1.0 3.0 0.00 0.00 0.00 84 1016.6
20260901083103 76 122 1.0 2.0 0.00 0.00 0.00 84 1016.4
20260901083003 76 121 1.0 2.0 0.00 0.00 0.00 84 1016.7
20260901082902 76 120 1.0 2.0 0.00 0.00 0.00 84 1016.7
20260901082803 76 125 1.0 2.0 0.00 0.00 0.00 84 1016.4
20260901082703 76 125 1.0 2.0 0.00 0.00 0.00 84 1016.5
20260901082603 76 131 1.0 6.0 0.00 0.00 0.00 84 1016.5
20260901082504 76 143 1.0 6.0 0.00 0.00 0.00 84 1016.5
20260901082404 76 147 1.0 6.0 0.00 0.00 0.00 84 1016.5
20260901082306 76 148 1.0 6.0 0.00 0.00 0.00 84 1016.5
20260901082202 76 147 1.0 6.0 0.00 0.00 0.00 84 1016.5
20260901082104 76 149 1.0 6.0 0.00 0.00 0.00 84 1016.4
20260901082004 76 147 1.0 6.0 0.00 0.00 0.00 84 1016.3
20260901081904 76 145 1.0 6.0 0.00 0.00 0.00 84 1016.3
20260901081823 76 146 1.0 6.0 0.00 0.00 0.00 84 1016.5
20260901081703 76 148 1.0 6.0 0.00 0.00 0.00 84 1016.4
20260901081603 76 146 1.0 3.0 0.00 0.00 0.00 84 1016.5
20260901081503 76 142 1.0 3.0 0.00 0.00 0.00 84 1016.4
20260901081424 76 138 1.0 3.0 0.00 0.00 0.00 84 1016.4
20260901081303 76 139 1.0 3.0 0.00 0.00 0.00 85 1016.5
20260901081203 76 138 1.0 3.0 0.00 0.00 0.00 85 1016.4
20260901081123 76 138 1.0 4.0 0.00 0.00 0.00 85 1016.4
20260901081002 76 140 1.0 4.0 0.00 0.00 0.00 85 1016.5
20260901080902 76 141 1.0 4.0 0.00 0.00 0.00 84 1016.6
20260901080802 76 138 1.0 4.0 0.00 0.00 0.00 84 1016.4
20260901080702 76 136 1.0 4.0 0.00 0.00 0.00 84 1016.5
20260901080603 76 135 1.0 4.0 0.00 0.00 0.00 84 1016.6
20260901080502 76 140 1.0 7.0 0.00 0.00 0.00 85 1016.5
20260901080404 76 141 1.0 7.0 0.00 0.00 0.00 85 1016.5
20260901080304 76 142 1.0 7.0 0.00 0.00 0.00 85 1016.4
20260901080204 76 141 1.0 7.0 0.00 0.00 0.00 85 1016.6
20260901080123 76 139 1.0 7.0 0.00 0.00 0.00 85 1016.4
20260901080003 76 140 1.0 7.0 0.00 0.00 0.00 85 1016.6
20260901075904 76 141 1.0 7.0 0.00 0.00 0.00 85 1016.6
20260901075803 76 141 1.0 7.0 0.00 0.00 0.00 85 1016.4
20260901075702 75 139 1.0 7.0 0.00 0.00 0.00 85 1016.4
20260901075603 75 139 1.0 7.0 0.00 0.00 0.00 85 1016.4
20260901075502 75 127 1.0 3.0 0.00 0.00 0.00 86 1016.5
20260901075402 75 127 1.0 3.0 0.00 0.00 0.00 86 1016.6
20260901075306 75 128 1.0 3.0 0.00 0.00 0.00 86 1016.6
20260901075203 75 128 1.0 3.0 0.00 0.00 0.00 86 1016.4
20260901075124 75 128 0.0 2.0 0.00 0.00 0.00 86 1016.5
20260901075003 75 118 0.0 2.0 0.00 0.00 0.00 87 1016.5
20260901074902 75 120 0.0 2.0 0.00 0.00 0.00 87 1016.6
20260901074823 75 120 0.0 2.0 0.00 0.00 0.00 86 1016.4
20260901074703 75 130 0.0 6.0 0.00 0.00 0.00 86 1016.6
20260901074603 75 131 0.0 6.0 0.00 0.00 0.00 86 1016.5
20260901074503 75 130 0.0 6.0 0.00 0.00 0.00 87 1016.7
20260901074404 75 131 0.0 6.0 0.00 0.00 0.00 87 1016.6
20260901074303 75 131 0.0 6.0 0.00 0.00 0.00 87 1016.5
20260901074202 75 133 0.0 6.0 0.00 0.00 0.00 87 1016.7
20260901074103 75 133 0.0 6.0 0.00 0.00 0.00 87 1016.6
20260901074025 74 132 0.0 6.0 0.00 0.00 0.00 87 1016.6
20260901073904 74 132 0.0 6.0 0.00 0.00 0.00 87 1016.7
20260901073802 74 120 0.0 6.0 0.00 0.00 0.00 89 1016.5
20260901073724 74 115 0.0 3.0 0.00 0.00 0.00 88 1016.7
20260901073603 74 115 0.0 3.0 0.00 0.00 0.00 89 1016.7
20260901073502 74 115 0.0 3.0 0.00 0.00 0.00 89 1016.6
20260901073424 74 115 0.0 3.0 0.00 0.00 0.00 88 1016.6
20260901073302 74 115 0.0 3.0 0.00 0.00 0.00 89 1016.6
20260901073202 74 115 0.0 3.0 0.00 0.00 0.00 89 1016.5
20260901073104 74 116 0.0 3.0 0.00 0.00 0.00 89 1016.4
20260901073004 74 121 0.0 2.0 0.00 0.00 0.00 89 1016.7
20260901072904 74 123 0.0 2.0 0.00 0.00 0.00 89 1016.5
20260901072802 74 123 0.0 2.0 0.00 0.00 0.00 89 1016.4
20260901072704 74 123 0.0 2.0 0.00 0.00 0.00 89 1016.5
20260901072603 74 125 0.0 2.0 0.00 0.00 0.00 89 1016.7
20260901072502 74 125 0.0 2.0 0.00 0.00 0.00 89 1016.6
20260901072404 74 125 0.0 2.0 0.00 0.00 0.00 88 1016.6
20260901072308 74 124 0.0 3.0 0.00 0.00 0.00 88 1016.5
20260901072203 74 122 1.0 3.0 0.00 0.00 0.00 88 1016.5
20260901072104 74 121 1.0 3.0 0.00 0.00 0.00 88 1016.5
20260901072003 74 122 1.0 3.0 0.00 0.00 0.00 88 1016.6
20260901071904 74 122 1.0 3.0 0.00 0.00 0.00 88 1016.5
20260901071803 74 122 1.0 3.0 0.00 0.00 0.00 88 1016.6
20260901071703 74 121 1.0 3.0 0.00 0.00 0.00 88 1016.6
20260901071602 74 120 1.0 3.0 0.00 0.00 0.00 88 1016.4
20260901071503 74 124 1.0 3.0 0.00 0.00 0.00 88 1016.5
20260901071402 74 124 1.0 3.0 0.00 0.00 0.00 88 1016.5
20260901071324 74 126 1.0 2.0 0.00 0.00 0.00 88 1016.6
20260901071203 74 126 1.0 2.0 0.00 0.00 0.00 88 1016.4
20260901071102 74 128 1.0 2.0 0.00 0.00 0.00 88 1016.6
20260901071025 74 128 0.0 2.0 0.00 0.00 0.00 88 1016.6
20260901070903 74 127 0.0 2.0 0.00 0.00 0.00 88 1016.6
20260901070803 74 127 0.0 2.0 0.00 0.00 0.00 88 1016.6
20260901070703 74 131 0.0 2.0 0.00 0.00 0.00 88 1016.5
20260901070603 74 135 0.0 2.0 0.00 0.00 0.00 88 1016.7
20260901070504 74 122 0.0 2.0 0.00 0.00 0.00 88 1016.8
20260901070402 74 124 0.0 2.0 0.00 0.00 0.00 88 1016.6
20260901070304 74 122 0.0 4.0 0.00 0.00 0.00 88 1016.7
20260901070203 74 124 1.0 4.0 0.00 0.00 0.00 88 1016.5
20260901070125 74 125 1.0 4.0 0.00 0.00 0.00 88 1016.6
20260901070024 74 126 1.0 4.0 0.00 0.00 0.00 88 1016.5
20260901065925 75 125 1.0 4.0 0.00 0.00 0.00 88 1016.7
20260901065825 75 125 1.0 4.0 0.00 0.00 0.00 88 1016.5
20260901065702 75 123 1.0 4.0 0.00 0.00 0.00 88 1016.6
20260901065604 75 122 1.0 4.0 0.00 0.00 0.00 88 1016.5
20260901065503 75 123 1.0 4.0 0.00 0.00 0.00 87 1016.5
20260901065402 75 122 1.0 4.0 0.00 0.00 0.00 87 1016.6
20260901065305 75 122 1.0 4.0 0.00 0.00 0.00 88 1016.4
20260901065202 75 121 1.0 4.0 0.00 0.00 0.00 87 1016.6
20260901065102 75 121 1.0 4.0 0.00 0.00 0.00 87 1016.5
20260901065004 75 123 1.0 4.0 0.00 0.00 0.00 87 1016.3
20260901064903 75 125 1.0 4.0 0.00 0.00 0.00 87 1016.5
20260901064803 75 127 1.0 4.0 0.00 0.00 0.00 87 1016.6
20260901064702 75 127 1.0 4.0 0.00 0.00 0.00 87 1016.6
20260901064624 75 127 1.0 4.0 0.00 0.00 0.00 87 1016.6
20260901064504 75 125 1.0 4.0 0.00 0.00 0.00 87 1016.5
20260901064403 75 126 1.0 4.0 0.00 0.00 0.00 87 1016.5
20260901064302 75 128 1.0 4.0 0.00 0.00 0.00 87 1016.6
20260901064203 75 127 1.0 4.0 0.00 0.00 0.00 87 1016.6
20260901064104 75 126 1.0 4.0 0.00 0.00 0.00 87 1016.7
20260901064024 75 124 1.0 4.0 0.00 0.00 0.00 87 1016.6
20260901063903 75 118 1.0 4.0 0.00 0.00 0.00 87 1016.5
20260901063802 75 114 1.0 4.0 0.00 0.00 0.00 87 1016.8
20260901063703 75 115 1.0 3.0 0.00 0.00 0.00 87 1016.6
20260901063624 75 115 1.0 3.0 0.00 0.00 0.00 87 1016.5
20260901063503 75 117 1.0 3.0 0.00 0.00 0.00 87 1016.8
20260901063403 75 118 1.0 2.0 0.00 0.00 0.00 87 1016.8
20260901063324 75 116 1.0 2.0 0.00 0.00 0.00 87 1016.7
20260901063203 75 118 1.0 4.0 0.00 0.00 0.00 87 1016.8
20260901063102 75 117 1.0 4.0 0.00 0.00 0.00 87 1016.7
20260901063024 75 116 1.0 4.0 0.00 0.00 0.00 88 1016.7
20260901062903 75 120 1.0 4.0 0.00 0.00 0.00 88 1016.6
20260901062803 75 122 1.0 4.0 0.00 0.00 0.00 88 1016.7
20260901062704 75 121 1.0 4.0 0.00 0.00 0.00 88 1016.8
20260901062603 75 121 1.0 4.0 0.00 0.00 0.00 87 1016.8
20260901062504 75 121 1.0 4.0 0.00 0.00 0.00 87 1016.7
20260901062402 75 120 1.0 4.0 0.00 0.00 0.00 87 1016.6
20260901062325 75 121 1.0 4.0 0.00 0.00 0.00 87 1016.5
20260901062203 75 124 2.0 4.0 0.00 0.00 0.00 87 1016.8
20260901062103 75 125 1.0 4.0 0.00 0.00 0.00 88 1016.6
20260901062003 75 125 1.0 4.0 0.00 0.00 0.00 87 1016.7
20260901061903 75 122 1.0 4.0 0.00 0.00 0.00 87 1016.8
20260901061804 75 122 1.0 3.0 0.00 0.00 0.00 88 1016.6
20260901061703 75 125 1.0 3.0 0.00 0.00 0.00 88 1016.5
20260901061624 75 125 1.0 3.0 0.00 0.00 0.00 88 1016.6
20260901061502 75 127 1.0 3.0 0.00 0.00 0.00 88 1016.6
20260901061403 75 128 1.0 3.0 0.00 0.00 0.00 88 1016.6
20260901061304 75 126 1.0 2.0 0.00 0.00 0.00 88 1016.8
20260901061203 75 123 1.0 2.0 0.00 0.00 0.00 88 1016.7
20260901061103 75 124 1.0 3.0 0.00 0.00 0.00 88 1016.7
20260901061024 75 126 1.0 3.0 0.00 0.00 0.00 88 1016.8
20260901060903 75 131 1.0 4.0 0.00 0.00 0.00 88 1016.7
20260901060802 75 130 1.0 4.0 0.00 0.00 0.00 88 1016.6
20260901060704 75 129 1.0 4.0 0.00 0.00 0.00 88 1016.7
20260901060604 75 129 1.0 4.0 0.00 0.00 0.00 87 1016.8
20260901060504 75 129 1.0 4.0 0.00 0.00 0.00 88 1016.7
20260901060402 75 128 1.0 4.0 0.00 0.00 0.00 87 1016.7
20260901060302 75 129 1.0 4.0 0.00 0.00 0.00 87 1016.8
20260901060225 75 129 1.0 4.0 0.00 0.00 0.00 87 1016.9
20260901060123 75 128 1.0 4.0 0.00 0.00 0.00 87 1016.8
20260901060004 75 126 1.0 3.0 0.00 0.00 0.00 87 1016.9
20260901055903 75 124 1.0 3.0 0.00 0.00 0.00 87 1016.7
20260901055824 75 124 1.0 3.0 0.00 0.00 0.00 87 1016.9
20260901055704 75 127 1.0 3.0 0.00 0.00 0.00 87 1016.8
20260901055604 75 129 1.0 3.0 0.00 0.00 0.00 87 1016.8
20260901055504 75 131 1.0 3.0 0.00 0.00 0.00 87 1017.0
20260901055402 75 132 1.0 3.0 0.00 0.00 0.00 87 1017.0
20260901055306 75 132 1.0 3.0 0.00 0.00 0.00 87 1016.9
20260901055225 75 132 1.0 3.0 0.00 0.00 0.00 87 1016.8
20260901055104 75 132 1.0 3.0 0.00 0.00 0.00 87 1016.9
20260901055003 75 132 1.0 3.0 0.00 0.00 0.00 88 1017.0
20260901054903 75 133 1.0 3.0 0.00 0.00 0.00 88 1016.9
20260901054804 75 133 1.0 3.0 0.00 0.00 0.00 87 1017.1
20260901054724 75 132 1.0 3.0 0.00 0.00 0.00 87 1016.9
20260901054624 75 129 1.0 3.0 0.00 0.00 0.00 87 1017.0
20260901054504 75 121 1.0 3.0 0.00 0.00 0.00 87 1017.0
20260901054402 75 121 1.0 3.0 0.00 0.00 0.00 88 1017.1
20260901054303 75 121 1.0 3.0 0.00 0.00 0.00 87 1016.9
20260901054203 75 121 1.0 3.0 0.00 0.00 0.00 87 1017.2
20260901054102 75 118 1.0 3.0 0.00 0.00 0.00 88 1017.1
20260901054002 75 119 1.0 3.0 0.00 0.00 0.00 88 1017.0
20260901053902 75 120 1.0 3.0 0.00 0.00 0.00 88 1017.0
20260901053803 75 119 1.0 3.0 0.00 0.00 0.00 88 1017.0
20260901053704 75 118 1.0 3.0 0.00 0.00 0.00 88 1017.2
20260901053603 75 120 1.0 3.0 0.00 0.00 0.00 88 1017.0
20260901053503 75 119 1.0 3.0 0.00 0.00 0.00 88 1017.0
20260901053404 75 118 1.0 3.0 0.00 0.00 0.00 88 1017.1
20260901053302 75 117 1.0 3.0 0.00 0.00 0.00 88 1017.1
20260901053203 75 119 1.0 3.0 0.00 0.00 0.00 88 1017.3
20260901053103 75 122 1.0 3.0 0.00 0.00 0.00 88 1017.1
20260901053003 75 122 1.0 4.0 0.00 0.00 0.00 88 1017.2
20260901052903 75 121 1.0 4.0 0.00 0.00 0.00 88 1017.3
20260901052823 75 121 1.0 4.0 0.00 0.00 0.00 88 1017.1
20260901052704 75 124 1.0 4.0 0.00 0.00 0.00 88 1017.3
20260901052603 75 124 1.0 4.0 0.00 0.00 0.00 88 1017.2
20260901052502 75 123 1.0 4.0 0.00 0.00 0.00 88 1017.0
20260901052425 75 124 1.0 4.0 0.00 0.00 0.00 88 1017.1
20260901052306 75 125 1.0 4.0 0.00 0.00 0.00 88 1017.2
20260901052204 75 128 1.0 4.0 0.00 0.00 0.00 88 1017.1
20260901052124 75 127 1.0 4.0 0.00 0.00 0.00 88 1017.1
20260901052025 75 126 1.0 4.0 0.00 0.00 0.00 89 1017.1
20260901051904 75 125 1.0 4.0 0.00 0.00 0.00 89 1017.1
20260901051804 75 125 1.0 4.0 0.00 0.00 0.00 89 1017.0
20260901051702 75 124 1.0 4.0 0.00 0.00 0.00 89 1017.0
20260901051603 75 125 1.0 4.0 0.00 0.00 0.00 89 1017.0
20260901051504 75 127 1.0 4.0 0.00 0.00 0.00 89 1016.9
20260901051404 75 128 1.0 4.0 0.00 0.00 0.00 89 1017.2
20260901051304 75 128 1.0 4.0 0.00 0.00 0.00 89 1017.2
20260901051202 75 125 1.0 4.0 0.00 0.00 0.00 89 1017.2
20260901051103 74 126 1.0 4.0 0.00 0.00 0.00 89 1017.2
20260901051004 74 125 1.0 2.0 0.00 0.00 0.00 89 1017.2
20260901050925 74 125 1.0 2.0 0.00 0.00 0.00 89 1017.2
20260901050804 74 124 1.0 2.0 0.00 0.00 0.00 89 1017.2
20260901050702 74 125 1.0 2.0 0.00 0.00 0.00 89 1017.2
20260901050604 74 124 1.0 2.0 0.00 0.00 0.00 89 1017.1
20260901050503 74 121 0.0 2.0 0.00 0.00 0.00 89 1017.2
20260901050403 74 114 0.0 3.0 0.00 0.00 0.00 89 1017.1
20260901050303 74 120 1.0 3.0 0.00 0.00 0.00 89 1017.1
20260901050204 74 123 1.0 3.0 0.00 0.00 0.00 89 1017.2
20260901050104 74 123 1.0 3.0 0.00 0.00 0.00 89 1017.1
20260901050004 74 123 1.0 3.0 0.00 0.00 0.00 89 1017.2
20260901045904 74 123 1.0 3.0 0.00 0.00 0.00 89 1017.1
20260901045825 74 123 1.0 3.0 0.00 0.00 0.00 89 1017.2
20260901045703 74 122 1.0 3.0 0.00 0.00 0.00 89 1017.1
20260901045623 74 123 1.0 3.0 0.00 0.00 0.00 89 1017.3
20260901045504 74 123 1.0 3.0 0.00 0.00 0.00 89 1017.2
20260901045423 74 124 1.0 3.0 0.00 0.00 0.00 89 1017.2
20260901045324 74 121 1.0 3.0 0.00 0.00 0.00 89 1017.3
20260901045203 74 120 1.0 3.0 0.00 0.00 0.00 89 1017.3
20260901045103 74 120 0.0 2.0 0.00 0.00 0.00 89 1017.3
20260901045003 74 120 0.0 2.0 0.00 0.00 0.00 89 1017.3
20260901044924 74 120 0.0 2.0 0.00 0.00 0.00 89 1017.2
20260901044804 74 125 0.0 2.0 0.00 0.00 0.00 89 1017.2
20260901044702 74 126 0.0 2.0 0.00 0.00 0.00 89 1017.2
20260901044602 74 117 0.0 1.0 0.00 0.00 0.00 89 1017.1
20260901044505 74 120 0.0 1.0 0.00 0.00 0.00 89 1017.3
20260901044402 74 122 0.0 1.0 0.00 0.00 0.00 89 1017.2
20260901044303 74 120 0.0 1.0 0.00 0.00 0.00 89 1017.1
20260901044203 75 123 0.0 1.0 0.00 0.00 0.00 89 1017.2
20260901044104 75 124 0.0 1.0 0.00 0.00 0.00 89 1017.0
20260901044003 75 124 0.0 1.0 0.00 0.00 0.00 89 1017.2
20260901043903 75 123 0.0 1.0 0.00 0.00 0.00 89 1017.4
20260901043803 75 123 0.0 1.0 0.00 0.00 0.00 89 1017.2
20260901043725 75 123 0.0 1.0 0.00 0.00 0.00 89 1017.2
20260901043602 75 123 0.0 3.0 0.00 0.00 0.00 89 1017.1
20260901043502 75 124 0.0 3.0 0.00 0.00 0.00 89 1017.2
20260901043424 75 125 0.0 3.0 0.00 0.00 0.00 89 1017.2
20260901043302 74 128 0.0 3.0 0.00 0.00 0.00 89 1017.1
20260901043204 75 125 0.0 3.0 0.00 0.00 0.00 89 1017.1
20260901043104 75 124 0.0 3.0 0.00 0.00 0.00 89 1017.2
20260901043003 75 124 0.0 3.0 0.00 0.00 0.00 89 1016.9
20260901042904 75 125 0.0 3.0 0.00 0.00 0.00 89 1017.1
20260901042802 75 124 0.0 3.0 0.00 0.00 0.00 89 1017.0
20260901042703 75 126 1.0 3.0 0.00 0.00 0.00 89 1017.0
20260901042604 75 125 1.0 3.0 0.00 0.00 0.00 89 1017.0
20260901042504 74 125 1.0 3.0 0.00 0.00 0.00 89 1017.1
20260901042404 74 121 1.0 3.0 0.00 0.00 0.00 89 1017.2
20260901042306 74 119 1.0 4.0 0.00 0.00 0.00 89 1017.1
20260901042204 74 119 1.0 4.0 0.00 0.00 0.00 89 1016.9
20260901042103 74 119 1.0 4.0 0.00 0.00 0.00 89 1017.1
20260901042002 74 121 1.0 4.0 0.00 0.00 0.00 90 1017.1
20260901041903 74 121 1.0 4.0 0.00 0.00 0.00 90 1017.2
20260901041803 74 121 1.0 4.0 0.00 0.00 0.00 90 1017.0
20260901041702 73 116 0.0 4.0 0.00 0.00 0.00 91 1017.1
20260901041603 73 117 0.0 4.0 0.00 0.00 0.00 91 1017.1
20260901041503 73 117 0.0 4.0 0.00 0.00 0.00 92 1017.0
20260901041404 72 118 0.0 4.0 0.00 0.00 0.00 92 1017.1
20260901041302 72 131 0.0 3.0 0.00 0.00 0.00 93 1017.1
20260901041204 72 131 0.0 3.0 0.00 0.00 0.00 93 1017.2
20260901041103 72 131 0.0 3.0 0.00 0.00 0.00 94 1017.1
20260901041003 72 132 0.0 1.0 0.00 0.00 0.00 94 1017.1
20260901040902 72 0 0.0 0.0 0.00 0.00 0.00 94 1017.2
20260901040803 72 0 0.0 0.0 0.00 0.00 0.00 94 1017.2
20260901040703 72 0 0.0 0.0 0.00 0.00 0.00 94 1017.2
20260901040603 72 0 0.0 0.0 0.00 0.00 0.00 94 1017.2
20260901040502 72 0 0.0 0.0 0.00 0.00 0.00 94 1017.2
20260901040404 72 0 0.0 0.0 0.00 0.00 0.00 94 1017.2
20260901040323 72 0 0.0 0.0 0.00 0.00 0.00 94 1017.2
20260901040203 72 0 0.0 0.0 0.00 0.00 0.00 94 1017.3
20260901040024 72 0 0.0 0.0 0.00 0.00 0.00 94 1017.2
20260901035904 72 0 0.0 0.0 0.00 0.00 0.00 94 1017.4
20260901035803 72 0 0.0 0.0 0.00 0.00 0.00 94 1017.4
20260901035703 72 0 0.0 0.0 0.00 0.00 0.00 94 1017.3
20260901035603 72 0 0.0 0.0 0.00 0.00 0.00 94 1017.3
20260901035503 72 0 0.0 0.0 0.00 0.00 0.00 94 1017.3
20260901035404 72 0 0.0 0.0 0.00 0.00 0.00 94 1017.3
20260901035305 72 0 0.0 0.0 0.00 0.00 0.00 94 1017.2
20260901035203 72 0 0.0 0.0 0.00 0.00 0.00 94 1017.3
20260901035102 72 0 0.0 0.0 0.00 0.00 0.00 94 1017.3
20260901035003 72 0 0.0 0.0 0.00 0.00 0.00 94 1017.5
20260901034925 72 0 0.0 0.0 0.00 0.00 0.00 94 1017.3
20260901034804 72 0 0.0 0.0 0.00 0.00 0.00 94 1017.3
20260901034702 72 0 0.0 0.0 0.00 0.00 0.00 94 1017.2
20260901034603 72 0 0.0 0.0 0.00 0.00 0.00 94 1017.2
20260901034503 72 0 0.0 0.0 0.00 0.00 0.00 94 1017.3
20260901034403 72 0 0.0 0.0 0.00 0.00 0.00 94 1017.1
20260901034302 72 0 0.0 0.0 0.00 0.00 0.00 94 1017.1
20260901034203 72 0 0.0 0.0 0.00 0.00 0.00 94 1017.3
20260901034102 72 0 0.0 0.0 0.00 0.00 0.00 94 1017.1
20260901034024 72 0 0.0 0.0 0.00 0.00 0.00 93 1017.2
20260901033902 72 0 0.0 0.0 0.00 0.00 0.00 94 1017.2
20260901033804 72 0 0.0 0.0 0.00 0.00 0.00 94 1017.3
20260901033703 72 0 0.0 0.0 0.00 0.00 0.00 93 1017.2
20260901033602 72 107 0.0 1.0 0.00 0.00 0.00 93 1017.2
20260901033503 72 96 0.0 2.0 0.00 0.00 0.00 93 1017.1
20260901033402 72 103 0.0 2.0 0.00 0.00 0.00 93 1017.1
20260901033302 72 103 0.0 2.0 0.00 0.00 0.00 93 1017.1
20260901033225 72 103 0.0 2.0 0.00 0.00 0.00 93 1017.2
20260901033124 72 103 0.0 2.0 0.00 0.00 0.00 93 1017.1
20260901033003 72 103 0.0 2.0 0.00 0.00 0.00 93 1017.0
20260901032903 72 103 0.0 2.0 0.00 0.00 0.00 93 1016.9
20260901032804 72 103 0.0 2.0 0.00 0.00 0.00 93 1017.1
20260901032702 72 103 0.0 2.0 0.00 0.00 0.00 93 1017.1
20260901032624 72 102 0.0 2.0 0.00 0.00 0.00 93 1017.1
20260901032504 72 117 0.0 2.0 0.00 0.00 0.00 94 1017.1
20260901032403 72 0 0.0 0.0 0.00 0.00 0.00 94 1017.2
20260901032306 72 0 0.0 0.0 0.00 0.00 0.00 94 1017.4
20260901032204 72 0 0.0 0.0 0.00 0.00 0.00 93 1017.5
20260901032102 72 0 0.0 0.0 0.00 0.00 0.00 93 1017.5
20260901032024 72 0 0.0 0.0 0.00 0.00 0.00 93 1017.5
20260901031904 72 0 0.0 0.0 0.00 0.00 0.00 94 1017.4
20260901031803 72 0 0.0 0.0 0.00 0.00 0.00 94 1017.4
20260901031703 72 0 0.0 0.0 0.00 0.00 0.00 94 1017.4
20260901031625 72 0 0.0 0.0 0.00 0.00 0.00 94 1017.4
20260901031502 72 0 0.0 0.0 0.00 0.00 0.00 94 1017.3
20260901031403 72 0 0.0 0.0 0.00 0.00 0.00 94 1017.3
20260901031302 72 0 0.0 0.0 0.00 0.00 0.00 94 1017.2
20260901031203 72 0 0.0 0.0 0.00 0.00 0.00 94 1017.3
20260901031104 72 0 0.0 0.0 0.00 0.00 0.00 94 1017.1
20260901031004 72 0 0.0 0.0 0.00 0.00 0.00 94 1017.1
20260901030903 72 0 0.0 0.0 0.00 0.00 0.00 94 1017.2
20260901030803 72 0 0.0 0.0 0.00 0.00 0.00 94 1017.1
20260901030703 72 0 0.0 0.0 0.00 0.00 0.00 94 1017.3
20260901030603 72 0 0.0 0.0 0.00 0.00 0.00 94 1017.2
20260901030524 72 0 0.0 0.0 0.00 0.00 0.00 94 1017.3
20260901030404 72 0 0.0 0.0 0.00 0.00 0.00 94 1017.3
20260901030303 72 0 0.0 0.0 0.00 0.00 0.00 94 1017.2
20260901030202 72 0 0.0 0.0 0.00 0.00 0.00 94 1017.2
20260901030004 72 0 0.0 0.0 0.00 0.00 0.00 94 1017.3
20260901025925 72 0 0.0 0.0 0.00 0.00 0.00 94 1017.3
20260901025803 72 0 0.0 0.0 0.00 0.00 0.00 94 1017.2
20260901025703 72 0 0.0 0.0 0.00 0.00 0.00 94 1017.3
20260901025602 72 0 0.0 0.0 0.00 0.00 0.00 94 1017.3
20260901025504 72 0 0.0 0.0 0.00 0.00 0.00 94 1017.2
20260901025425 72 0 0.0 0.0 0.00 0.00 0.00 93 1017.2
20260901025324 72 0 0.0 0.0 0.00 0.00 0.00 93 1017.3
20260901025203 72 0 0.0 0.0 0.00 0.00 0.00 93 1017.2
20260901025104 72 0 0.0 0.0 0.00 0.00 0.00 93 1017.1
20260901025002 72 0 0.0 0.0 0.00 0.00 0.00 93 1017.2
20260901024904 72 0 0.0 0.0 0.00 0.00 0.00 93 1017.3
20260901024802 72 0 0.0 0.0 0.00 0.00 0.00 93 1017.1
20260901024704 72 0 0.0 0.0 0.00 0.00 0.00 93 1017.1
20260901024603 72 0 0.0 0.0 0.00 0.00 0.00 93 1017.1
20260901024504 72 0 0.0 0.0 0.00 0.00 0.00 93 1017.2
20260901024403 72 0 0.0 0.0 0.00 0.00 0.00 93 1016.9
20260901024302 72 0 0.0 0.0 0.00 0.00 0.00 93 1017.1
20260901024225 72 0 0.0 0.0 0.00 0.00 0.00 93 1017.3
20260901024103 72 0 0.0 0.0 0.00 0.00 0.00 93 1016.9
20260901024024 72 0 0.0 0.0 0.00 0.00 0.00 93 1017.0
20260901023904 72 0 0.0 0.0 0.00 0.00 0.00 93 1016.9
20260901023824 72 0 0.0 0.0 0.00 0.00 0.00 93 1016.7
20260901023703 72 0 0.0 0.0 0.00 0.00 0.00 92 1016.9
20260901023603 72 0 0.0 0.0 0.00 0.00 0.00 93 1016.9
20260901023504 72 0 0.0 0.0 0.00 0.00 0.00 92 1016.8
20260901023403 72 0 0.0 0.0 0.00 0.00 0.00 92 1016.7
20260901023324 72 0 0.0 0.0 0.00 0.00 0.00 92 1016.9
20260901023204 72 0 0.0 0.0 0.00 0.00 0.00 92 1016.7
20260901023103 72 0 0.0 0.0 0.00 0.00 0.00 93 1017.0
20260901023004 72 0 0.0 0.0 0.00 0.00 0.00 92 1017.2
20260901022903 72 0 0.0 0.0 0.00 0.00 0.00 92 1017.2
20260901022803 73 0 0.0 0.0 0.00 0.00 0.00 92 1017.0
20260901022702 73 0 0.0 0.0 0.00 0.00 0.00 92 1017.1
20260901022624 73 0 0.0 0.0 0.00 0.00 0.00 92 1016.9
20260901022504 73 0 0.0 0.0 0.00 0.00 0.00 92 1017.0
20260901022402 73 0 0.0 0.0 0.00 0.00 0.00 92 1016.9
20260901022305 73 0 0.0 0.0 0.00 0.00 0.00 92 1017.0
20260901022225 73 0 0.0 0.0 0.00 0.00 0.00 92 1017.0
20260901022103 73 0 0.0 0.0 0.00 0.00 0.00 92 1017.2
20260901022025 73 0 0.0 0.0 0.00 0.00 0.00 92 1017.2
20260901021904 73 0 0.0 0.0 0.00 0.00 0.00 92 1017.2
20260901021803 73 0 0.0 0.0 0.00 0.00 0.00 92 1017.2
20260901021704 73 0 0.0 0.0 0.00 0.00 0.00 92 1017.3
20260901021603 73 0 0.0 0.0 0.00 0.00 0.00 92 1017.4
20260901021524 73 0 0.0 0.0 0.00 0.00 0.00 92 1017.3
20260901021403 73 0 0.0 0.0 0.00 0.00 0.00 92 1017.3
20260901021303 73 0 0.0 0.0 0.00 0.00 0.00 92 1017.3
20260901021203 73 0 0.0 0.0 0.00 0.00 0.00 92 1017.3
20260901021103 73 0 0.0 0.0 0.00 0.00 0.00 92 1017.2
20260901021003 73 0 0.0 0.0 0.00 0.00 0.00 91 1017.4
20260901020904 73 0 0.0 0.0 0.00 0.00 0.00 91 1017.3
20260901020803 73 0 0.0 0.0 0.00 0.00 0.00 91 1017.3
20260901020703 74 0 0.0 0.0 0.00 0.00 0.00 91 1017.4
20260901020603 74 0 0.0 0.0 0.00 0.00 0.00 91 1017.5
20260901020503 74 0 0.0 0.0 0.00 0.00 0.00 91 1017.5
20260901020403 74 0 0.0 0.0 0.00 0.00 0.00 91 1017.3
20260901020303 74 0 0.0 0.0 0.00 0.00 0.00 91 1017.3
20260901020203 74 0 0.0 0.0 0.00 0.00 0.00 90 1017.4
20260901020003 74 0 0.0 0.0 0.00 0.00 0.00 90 1017.2
20260901015903 74 0 0.0 0.0 0.00 0.00 0.00 90 1017.1
20260901015802 74 0 0.0 0.0 0.00 0.00 0.00 90 1017.3
20260901015704 74 0 0.0 0.0 0.00 0.00 0.00 90 1017.2
20260901015603 74 0 0.0 0.0 0.00 0.00 0.00 90 1017.2
20260901015503 74 0 0.0 0.0 0.00 0.00 0.00 90 1017.2
20260901015403 74 0 0.0 0.0 0.00 0.00 0.00 90 1017.4
20260901015305 74 0 0.0 0.0 0.00 0.00 0.00 91 1017.2
20260901015224 74 0 0.0 0.0 0.00 0.00 0.00 91 1017.3
20260901015124 74 0 0.0 0.0 0.00 0.00 0.00 90 1017.3
20260901015025 74 0 0.0 0.0 0.00 0.00 0.00 90 1017.2
20260901014903 74 114 0.0 1.0 0.00 0.00 0.00 90 1017.3
20260901014803 75 116 0.0 2.0 0.00 0.00 0.00 90 1017.4
20260901014703 75 122 0.0 2.0 0.00 0.00 0.00 90 1017.3
20260901014603 75 126 0.0 2.0 0.00 0.00 0.00 90 1017.2
20260901014504 75 126 0.0 2.0 0.00 0.00 0.00 90 1017.3
20260901014403 75 126 0.0 2.0 0.00 0.00 0.00 90 1017.5
20260901014324 75 126 0.0 2.0 0.00 0.00 0.00 90 1017.4
20260901014203 75 126 0.0 2.0 0.00 0.00 0.00 89 1017.4
20260901014103 75 126 0.0 2.0 0.00 0.00 0.00 89 1017.3
20260901014024 75 126 0.0 2.0 0.00 0.00 0.00 89 1017.2
20260901013924 75 127 0.0 2.0 0.00 0.00 0.00 90 1017.3
20260901013803 75 132 0.0 2.0 0.00 0.00 0.00 90 1017.3
20260901013725 75 136 0.0 2.0 0.00 0.00 0.00 90 1017.3